FW0869 Weather Reports


Display with metric or nautical units.
time (UTC)temp
F
wind
direction
speed
MPH
gust
MPH
rain 1hr
in
rain 24hr
in
rain mn
in
humidity
%
barometer
mb
20260509084403 51 294 1.0 4.0 0.00 0.00 0.00 61 1014.2
20260509084259 51 294 1.0 4.0 0.00 0.00 0.00 61 1014.2
20260509084157 51 294 1.0 4.0 0.00 0.00 0.00 61 1014.3
20260509084036 51 294 1.0 4.0 0.00 0.00 0.00 61 1014.3
20260509083957 51 294 1.0 4.0 0.00 0.00 0.00 61 1014.3
20260509083859 51 355 1.0 4.0 0.00 0.00 0.00 61 1014.3
20260509083653 51 319 1.0 4.0 0.00 0.00 0.00 61 1014.3
20260509083531 51 319 1.0 4.0 0.00 0.00 0.00 61 1014.3
20260509083453 51 329 1.0 4.0 0.00 0.00 0.00 61 1014.3
20260509083352 51 102 1.0 4.0 0.00 0.00 0.00 62 1014.3
20260509083251 51 102 1.0 4.0 0.00 0.00 0.00 62 1014.3
20260509083150 51 102 1.0 4.0 0.00 0.00 0.00 61 1014.3
20260509083132 51 73 1.0 4.0 0.00 0.00 0.00 61 1014.2
20260509082949 51 73 1.0 4.0 0.00 0.00 0.00 61 1014.3
20260509082846 51 73 1.0 4.0 0.00 0.00 0.00 61 1014.3
20260509082745 51 73 1.0 4.0 0.00 0.00 0.00 61 1014.3
20260509082644 51 73 1.0 4.0 0.00 0.00 0.00 61 1014.3
20260509082526 51 80 1.0 3.0 0.00 0.00 0.00 61 1014.3
20260509082446 51 80 1.0 3.0 0.00 0.00 0.00 61 1014.3
20260509082237 51 80 1.0 3.0 0.00 0.00 0.00 61 1014.3
20260509082137 51 339 1.0 3.0 0.00 0.00 0.00 60 1014.5
20260509082025 51 339 1.0 2.0 0.00 0.00 0.00 60 1014.5
20260509081936 51 339 1.0 2.0 0.00 0.00 0.00 60 1014.5
20260509081833 51 339 1.0 2.0 0.00 0.00 0.00 60 1014.5
20260509081733 51 339 1.0 2.0 0.00 0.00 0.00 60 1014.5
20260509081632 51 339 1.0 2.0 0.00 0.00 0.00 60 1014.5
20260509081525 52 339 1.0 3.0 0.00 0.00 0.00 60 1014.5
20260509081429 52 339 1.0 3.0 0.00 0.00 0.00 59 1014.5
20260509081327 52 339 1.0 3.0 0.00 0.00 0.00 59 1014.5
20260509081228 52 339 1.0 5.0 0.00 0.00 0.00 59 1014.5
20260509081021 52 339 2.0 5.0 0.00 0.00 0.00 58 1014.5
20260509080922 52 339 2.0 5.0 0.00 0.00 0.00 58 1014.3
20260509080822 52 339 2.0 5.0 0.00 0.00 0.00 58 1014.5
20260509080721 52 339 2.0 5.0 0.00 0.00 0.00 58 1014.3
20260509080620 52 339 3.0 5.0 0.00 0.00 0.00 58 1014.5
20260509080520 52 339 3.0 5.0 0.00 0.00 0.00 58 1014.5
20260509080417 53 339 3.0 5.0 0.00 0.00 0.00 58 1014.5
20260509080315 53 339 3.0 6.0 0.00 0.00 0.00 58 1014.3
20260509080211 53 323 3.0 6.0 0.00 0.00 0.00 58 1014.5
20260509080110 53 323 3.0 6.0 0.00 0.00 0.00 58 1014.5
20260509080008 53 323 3.0 6.0 0.00 0.00 0.00 58 1014.5
20260509075908 53 323 3.0 6.0 0.00 0.00 0.00 58 1014.5
20260509075811 53 323 3.0 6.0 0.00 0.00 0.00 58 1014.5
20260509075602 53 323 4.0 7.0 0.00 0.00 0.00 58 1014.5
20260509075524 53 323 4.0 8.0 0.00 0.00 0.00 58 1014.5
20260509075501 53 323 4.0 8.0 0.00 0.00 0.00 58 1014.5
20260509075408 53 323 4.0 9.0 0.00 0.00 0.00 58 1014.5
20260509075217 53 302 4.0 9.0 0.00 0.00 0.00 57 1014.5
20260509075102 53 329 4.0 9.0 0.00 0.00 0.00 57 1014.5
20260509074858 53 304 4.0 9.0 0.00 0.00 0.00 57 1014.6
20260509074757 53 311 4.0 9.0 0.00 0.00 0.00 57 1014.6
20260509074549 53 324 3.0 9.0 0.00 0.00 0.00 57 1014.7
20260509074519 53 316 3.0 9.0 0.00 0.00 0.00 57 1014.7
20260509074455 53 325 3.0 8.0 0.00 0.00 0.00 57 1014.7
20260509074249 53 323 3.0 6.0 0.00 0.00 0.00 58 1014.7
20260509074152 53 9 2.0 6.0 0.00 0.00 0.00 58 1014.7
20260509074019 53 325 2.0 5.0 0.00 0.00 0.00 58 1014.7
20260509073946 53 324 2.0 5.0 0.00 0.00 0.00 58 1014.7
20260509073847 53 346 3.0 5.0 0.00 0.00 0.00 58 1014.7
20260509073743 53 346 3.0 6.0 0.00 0.00 0.00 58 1014.8
20260509073640 53 345 3.0 6.0 0.00 0.00 0.00 58 1014.8
20260509073537 53 346 3.0 6.0 0.00 0.00 0.00 58 1014.9
20260509073520 53 345 3.0 6.0 0.00 0.00 0.00 58 1014.9
20260509073437 53 346 3.0 6.0 0.00 0.00 0.00 58 1014.8
20260509073337 53 346 3.0 6.0 0.00 0.00 0.00 58 1014.9
20260509073238 53 346 2.0 6.0 0.00 0.00 0.00 57 1014.9
20260509073134 53 341 2.0 6.0 0.00 0.00 0.00 57 1014.9
20260509073031 53 348 2.0 6.0 0.00 0.00 0.00 57 1014.9
20260509073020 53 0 2.0 6.0 0.00 0.00 0.00 57 1014.9
20260509072932 53 304 2.0 6.0 0.00 0.00 0.00 57 1014.9
20260509072832 53 315 2.0 6.0 0.00 0.00 0.00 57 1014.9
20260509072732 53 5 1.0 5.0 0.00 0.00 0.00 57 1014.9
20260509072626 53 336 1.0 5.0 0.00 0.00 0.00 57 1014.9
20260509072520 53 288 1.0 3.0 0.00 0.00 0.00 57 1014.9
20260509072425 53 288 1.0 4.0 0.00 0.00 0.00 57 1014.9
20260509072325 53 288 2.0 8.0 0.00 0.00 0.00 57 1014.9
20260509072225 53 288 3.0 9.0 0.00 0.00 0.00 57 1014.9
20260509072132 53 288 3.0 10.0 0.00 0.00 0.00 57 1014.9
20260509072018 53 288 4.0 10.0 0.00 0.00 0.00 57 1014.9
20260509071924 53 288 4.0 10.0 0.00 0.00 0.00 57 1014.9
20260509071821 53 288 4.0 10.0 0.00 0.00 0.00 58 1014.9
20260509071721 53 288 4.0 10.0 0.00 0.00 0.00 58 1014.9
20260509071514 53 288 5.0 10.0 0.00 0.00 0.00 59 1014.9
20260509071413 52 281 5.0 10.0 0.00 0.00 0.00 61 1015.1
20260509071314 52 296 4.0 10.0 0.00 0.00 0.00 62 1015.1
20260509071215 51 296 4.0 10.0 0.00 0.00 0.00 63 1014.9
20260509071125 51 329 4.0 9.0 0.00 0.00 0.00 64 1015.1
20260509071013 51 296 3.0 9.0 0.00 0.00 0.00 64 1014.9
20260509070913 51 281 3.0 6.0 0.00 0.00 0.00 65 1014.9
20260509070813 50 271 3.0 6.0 0.00 0.00 0.00 65 1014.8
20260509070713 50 269 3.0 5.0 0.00 0.00 0.00 65 1014.8
20260509070625 50 258 3.0 5.0 0.00 0.00 0.00 65 1014.8
20260509070509 50 252 3.0 5.0 0.00 0.00 0.00 65 1014.8
20260509070409 50 255 3.0 5.0 0.00 0.00 0.00 65 1014.8
20260509070309 50 250 3.0 5.0 0.00 0.00 0.00 65 1014.8
20260509070210 50 195 3.0 7.0 0.00 0.00 0.00 65 1014.8
20260509070109 50 195 3.0 7.0 0.00 0.00 0.00 65 1014.9
20260509070015 50 195 3.0 7.0 0.00 0.00 0.00 65 1014.8
20260509070007 51 196 3.0 7.0 0.00 0.00 0.00 65 1014.8
20260509065907 51 195 3.0 7.0 0.00 0.00 0.00 65 1014.8
20260509065807 51 195 4.0 7.0 0.00 0.00 0.00 65 1014.8
20260509065716 51 195 4.0 7.0 0.00 0.00 0.00 65 1014.9
20260509065507 51 178 4.0 9.0 0.00 0.00 0.00 66 1014.9
20260509065405 51 178 4.0 9.0 0.00 0.00 0.00 66 1014.9
20260509065312 51 184 5.0 9.0 0.00 0.00 0.00 66 1014.9
20260509065105 51 190 5.0 9.0 0.00 0.00 0.00 66 1014.9
20260509065015 51 193 5.0 9.0 0.00 0.00 0.00 66 1014.9
20260509065005 51 198 5.0 9.0 0.00 0.00 0.00 66 1014.9
20260509064903 51 215 5.0 9.0 0.00 0.00 0.00 66 1014.9
20260509064808 51 172 5.0 9.0 0.00 0.00 0.00 66 1014.9
20260509064602 51 167 5.0 9.0 0.00 0.00 0.00 66 1014.9
20260509064516 51 170 5.0 9.0 0.00 0.00 0.00 66 1015.1
20260509064501 51 164 5.0 9.0 0.00 0.00 0.00 66 1015.1
20260509064402 51 151 5.0 9.0 0.00 0.00 0.00 66 1015.1
20260509064301 51 189 5.0 9.0 0.00 0.00 0.00 66 1014.9
20260509064201 51 171 5.0 9.0 0.00 0.00 0.00 66 1015.1
20260509064121 51 171 5.0 9.0 0.00 0.00 0.00 66 1014.9
20260509064001 51 161 4.0 9.0 0.00 0.00 0.00 66 1015.1
20260509063901 51 181 4.0 9.0 0.00 0.00 0.00 66 1014.9
20260509063802 51 173 4.0 9.0 0.00 0.00 0.00 66 1014.9
20260509063657 51 167 4.0 9.0 0.00 0.00 0.00 67 1014.9
20260509063556 51 172 4.0 7.0 0.00 0.00 0.00 67 1015.1
20260509063515 51 169 4.0 7.0 0.00 0.00 0.00 67 1015.1
20260509063455 51 171 4.0 7.0 0.00 0.00 0.00 67 1015.1
20260509063359 51 169 4.0 7.0 0.00 0.00 0.00 67 1015.1
20260509063147 50 154 4.0 7.0 0.00 0.00 0.00 67 1015.1
20260509063047 50 154 4.0 7.0 0.00 0.00 0.00 67 1015.2
20260509063015 50 154 4.0 7.0 0.00 0.00 0.00 67 1015.2
20260509062947 50 157 4.0 7.0 0.00 0.00 0.00 67 1015.1
20260509062847 50 157 4.0 7.0 0.00 0.00 0.00 67 1015.1
20260509062746 50 172 4.0 7.0 0.00 0.00 0.00 66 1015.2
20260509062641 50 172 4.0 7.0 0.00 0.00 0.00 66 1015.1
20260509062540 51 182 4.0 7.0 0.00 0.00 0.00 66 1015.2
20260509062515 51 159 4.0 7.0 0.00 0.00 0.00 66 1015.2
20260509062441 51 170 4.0 7.0 0.00 0.00 0.00 66 1015.2
20260509062339 51 173 4.0 7.0 0.00 0.00 0.00 66 1015.2
20260509062238 51 186 4.0 7.0 0.00 0.00 0.00 66 1015.2
20260509062138 51 186 4.0 7.0 0.00 0.00 0.00 66 1015.2
20260509062015 51 178 4.0 7.0 0.00 0.00 0.00 66 1015.2
20260509061937 51 184 4.0 7.0 0.00 0.00 0.00 66 1015.2
20260509061837 51 183 3.0 7.0 0.00 0.00 0.00 66 1015.2
20260509061739 51 175 3.0 6.0 0.00 0.00 0.00 66 1015.2
20260509061636 51 170 3.0 6.0 0.00 0.00 0.00 65 1015.2
20260509061515 51 178 3.0 4.0 0.00 0.00 0.00 65 1015.2
20260509061435 51 178 3.0 4.0 0.00 0.00 0.00 65 1015.2
20260509061335 51 178 3.0 4.0 0.00 0.00 0.00 65 1015.3
20260509061233 51 178 2.0 4.0 0.00 0.00 0.00 65 1015.3
20260509061134 51 178 2.0 4.0 0.00 0.00 0.00 65 1015.2
20260509061015 51 178 2.0 4.0 0.00 0.00 0.00 65 1015.3
20260509060929 51 178 2.0 4.0 0.00 0.00 0.00 65 1015.3
20260509060828 52 178 2.0 4.0 0.00 0.00 0.00 64 1015.3
20260509060727 52 178 2.0 4.0 0.00 0.00 0.00 64 1015.3
20260509060627 52 178 2.0 7.0 0.00 0.00 0.00 64 1015.3
20260509060525 52 178 2.0 7.0 0.00 0.00 0.00 64 1015.4
20260509060323 52 178 3.0 7.0 0.00 0.00 0.00 64 1015.4
20260509060221 52 178 3.0 7.0 0.00 0.00 0.00 64 1015.4
20260509060128 52 178 4.0 9.0 0.00 0.00 0.00 64 1015.4
20260509060017 52 178 4.0 9.0 0.00 0.00 0.00 64 1015.4
20260509055912 52 178 5.0 9.0 0.00 0.00 0.00 64 1015.4
20260509055812 52 178 5.0 9.0 0.00 0.00 0.00 64 1015.4
20260509055718 52 178 5.0 9.0 0.00 0.00 0.00 64 1015.4
20260509055512 52 159 6.0 9.0 0.00 0.00 0.00 64 1015.4
20260509055406 52 155 6.0 9.0 0.00 0.00 0.00 64 1015.4
20260509055313 52 170 6.0 9.0 0.00 0.00 0.00 64 1015.4
20260509055117 52 150 5.0 9.0 0.00 0.00 0.00 64 1015.4
20260509055006 52 155 5.0 9.0 0.00 0.00 0.00 64 1015.5
20260509054759 52 160 5.0 9.0 0.00 0.00 0.00 64 1015.4
20260509054700 52 165 5.0 9.0 0.00 0.00 0.00 64 1015.5
20260509054559 52 167 5.0 8.0 0.00 0.00 0.00 64 1015.5
20260509054500 52 165 4.0 8.0 0.00 0.00 0.00 64 1015.5
20260509054253 52 159 4.0 8.0 0.00 0.00 0.00 64 1015.5
20260509054154 52 153 4.0 8.0 0.00 0.00 0.00 64 1015.5
20260509054104 52 159 4.0 8.0 0.00 0.00 0.00 64 1015.5
20260509054057 52 152 4.0 8.0 0.00 0.00 0.00 64 1015.5
20260509053849 52 143 4.0 8.0 0.00 0.00 0.00 64 1015.6
20260509053748 52 151 4.0 8.0 0.00 0.00 0.00 64 1015.6
20260509053655 52 153 4.0 8.0 0.00 0.00 0.00 64 1015.6
20260509053448 52 158 4.0 8.0 0.00 0.00 0.00 64 1015.6
20260509053343 52 162 4.0 8.0 0.00 0.00 0.00 64 1015.6
20260509053244 52 144 4.0 8.0 0.00 0.00 0.00 64 1015.6
20260509053144 52 175 4.0 8.0 0.00 0.00 0.00 64 1015.8
20260509053043 52 148 4.0 8.0 0.00 0.00 0.00 64 1015.8
20260509052949 52 166 4.0 9.0 0.00 0.00 0.00 64 1015.8
20260509052635 52 180 4.0 9.0 0.00 0.00 0.00 64 1015.9
20260509052536 52 187 3.0 9.0 0.00 0.00 0.00 64 1015.9
20260509052436 52 173 3.0 9.0 0.00 0.00 0.00 64 1015.9
20260509052340 52 176 3.0 9.0 0.00 0.00 0.00 64 1015.9
20260509052131 52 170 3.0 9.0 0.00 0.00 0.00 64 1015.9
20260509052032 52 186 3.0 9.0 0.00 0.00 0.00 63 1015.9
20260509051931 52 178 3.0 5.0 0.00 0.00 0.00 63 1015.9
20260509051832 52 175 3.0 5.0 0.00 0.00 0.00 63 1015.9
20260509051625 52 171 3.0 5.0 0.00 0.00 0.00 63 1016.0
20260509051525 52 175 3.0 7.0 0.00 0.00 0.00 63 1016.0
20260509051424 52 148 3.0 7.0 0.00 0.00 0.00 63 1016.0
20260509051317 52 153 3.0 7.0 0.00 0.00 0.00 63 1016.0
20260509051217 52 168 3.0 7.0 0.00 0.00 0.00 63 1016.0
20260509051118 52 196 3.0 7.0 0.00 0.00 0.00 63 1016.0
20260509051017 53 168 3.0 7.0 0.00 0.00 0.00 63 1016.0
20260509050917 53 168 3.0 7.0 0.00 0.00 0.00 63 1016.0
20260509050819 53 168 3.0 7.0 0.00 0.00 0.00 63 1016.0
20260509050618 53 180 3.0 7.0 0.00 0.00 0.00 63 1016.0
20260509050411 53 177 3.0 7.0 0.00 0.00 0.00 63 1016.0
20260509050306 53 178 3.0 7.0 0.00 0.00 0.00 63 1016.0
20260509050206 53 192 3.0 7.0 0.00 0.00 0.00 62 1016.0
20260509050106 53 187 3.0 7.0 0.00 0.00 0.00 62 1016.0
20260509050006 53 190 3.0 7.0 0.00 0.00 0.00 62 1016.1
20260509045905 53 216 3.0 7.0 0.00 0.00 0.00 62 1016.0
20260509045759 53 204 3.0 7.0 0.00 0.00 0.00 62 1016.1
20260509045700 53 216 3.0 6.0 0.00 0.00 0.00 62 1016.1
20260509045600 53 198 3.0 6.0 0.00 0.00 0.00 62 1016.1
20260509045500 53 198 3.0 6.0 0.00 0.00 0.00 62 1016.1
20260509045401 53 186 3.0 5.0 0.00 0.00 0.00 62 1016.1
20260509045154 53 215 3.0 5.0 0.00 0.00 0.00 62 1016.1
20260509045055 53 201 3.0 5.0 0.00 0.00 0.00 62 1016.2
20260509044954 53 200 3.0 5.0 0.00 0.00 0.00 62 1016.2
20260509044853 53 205 3.0 5.0 0.00 0.00 0.00 62 1016.2
20260509044756 53 181 3.0 5.0 0.00 0.00 0.00 63 1016.4
20260509044606 53 187 3.0 5.0 0.00 0.00 0.00 63 1016.4
20260509044559 53 198 3.0 5.0 0.00 0.00 0.00 63 1016.4
20260509044242 53 207 3.0 5.0 0.00 0.00 0.00 63 1016.4
20260509044142 53 205 3.0 5.0 0.00 0.00 0.00 63 1016.5
20260509044059 53 203 3.0 5.0 0.00 0.00 0.00 63 1016.5
20260509043945 53 210 3.0 5.0 0.00 0.00 0.00 62 1016.6
20260509043742 53 230 3.0 5.0 0.00 0.00 0.00 62 1016.5
20260509043536 54 211 3.0 6.0 0.00 0.00 0.00 62 1016.5
20260509043437 54 211 3.0 6.0 0.00 0.00 0.00 62 1016.6
20260509043335 54 211 3.0 6.0 0.00 0.00 0.00 62 1016.5
20260509043235 54 188 3.0 6.0 0.00 0.00 0.00 62 1016.5
20260509043133 54 210 3.0 6.0 0.00 0.00 0.00 62 1016.5
20260509043031 54 195 3.0 6.0 0.00 0.00 0.00 62 1016.5
20260509042932 54 204 3.0 6.0 0.00 0.00 0.00 62 1016.5
20260509042830 54 204 3.0 6.0 0.00 0.00 0.00 62 1016.5
20260509042745 54 169 3.0 6.0 0.00 0.00 0.00 62 1016.5
20260509042341 54 209 3.0 5.0 0.00 0.00 0.00 62 1016.6
20260509042325 54 207 3.0 5.0 0.00 0.00 0.00 62 1016.6
20260509042225 54 226 2.0 5.0 0.00 0.00 0.00 62 1016.7
20260509042018 54 209 2.0 5.0 0.00 0.00 0.00 62 1016.8
20260509041918 54 201 2.0 4.0 0.00 0.00 0.00 62 1016.8
20260509041841 54 201 2.0 4.0 0.00 0.00 0.00 62 1016.8
20260509041819 54 194 2.0 4.0 0.00 0.00 0.00 62 1016.8
20260509041611 54 223 2.0 4.0 0.00 0.00 0.00 62 1017.0
20260509041512 54 227 2.0 4.0 0.00 0.00 0.00 62 1017.0
20260509041412 54 220 2.0 4.0 0.00 0.00 0.00 61 1016.8
20260509041341 54 244 1.0 4.0 0.00 0.00 0.00 61 1016.8
20260509041311 54 225 1.0 4.0 0.00 0.00 0.00 61 1016.8
20260509041208 54 216 2.0 4.0 0.00 0.00 0.00 61 1016.8
20260509041201 55 216 2.0 4.0 0.00 0.00 0.00 61 1016.8
20260509040805 55 216 2.0 4.0 0.00 0.00 0.00 60 1016.8
20260509040659 55 216 1.0 4.0 0.00 0.00 0.00 60 1016.8
20260509040557 55 216 1.0 3.0 0.00 0.00 0.00 60 1016.8
20260509040457 55 216 1.0 3.0 0.00 0.00 0.00 60 1017.0
20260509040338 55 216 1.0 3.0 0.00 0.00 0.00 59 1017.0
20260509040257 55 216 1.0 3.0 0.00 0.00 0.00 59 1016.8
20260509040151 55 216 1.0 3.0 0.00 0.00 0.00 59 1017.0
20260509040052 55 238 1.0 3.0 0.00 0.00 0.00 58 1016.8
20260509035951 55 206 1.0 3.0 0.00 0.00 0.00 58 1017.0
20260509035934 55 206 1.0 3.0 0.00 0.00 0.00 58 1017.0
20260509035502 56 206 2.0 3.0 0.00 0.00 0.00 57 1017.0
20260509035149 56 206 2.0 3.0 0.00 0.00 0.00 56 1017.1
20260509035056 56 206 2.0 3.0 0.00 0.00 0.00 55 1017.0
20260509034840 56 206 2.0 3.0 0.00 0.00 0.00 55 1017.1
20260509034747 56 206 2.0 3.0 0.00 0.00 0.00 55 1017.1
20260509034648 56 206 2.0 3.0 0.00 0.00 0.00 54 1017.1
20260509034551 56 202 2.0 3.0 0.00 0.00 0.00 54 1017.1
20260509034339 56 202 2.0 3.0 0.00 0.00 0.00 53 1017.1
20260509034244 56 202 1.0 3.0 0.00 0.00 0.00 53 1017.2
20260509034143 56 202 1.0 3.0 0.00 0.00 0.00 53 1017.2
20260509034044 56 237 1.0 3.0 0.00 0.00 0.00 53 1017.2
20260509033943 56 238 1.0 3.0 0.00 0.00 0.00 53 1017.2
20260509033836 56 238 1.0 3.0 0.00 0.00 0.00 53 1017.2
20260509033743 57 238 1.0 3.0 0.00 0.00 0.00 53 1017.2
20260509033643 57 238 1.0 3.0 0.00 0.00 0.00 53 1017.3
20260509033544 57 238 2.0 3.0 0.00 0.00 0.00 53 1017.3
20260509033441 57 238 2.0 3.0 0.00 0.00 0.00 53 1017.2
20260509033343 57 238 2.0 3.0 0.00 0.00 0.00 53 1017.3
20260509033336 57 237 2.0 3.0 0.00 0.00 0.00 53 1017.3
20260509033247 57 238 2.0 3.0 0.00 0.00 0.00 53 1017.3
20260509033040 57 238 1.0 3.0 0.00 0.00 0.00 53 1017.3
20260509032939 57 238 1.0 3.0 0.00 0.00 0.00 52 1017.3
20260509032845 57 121 1.0 3.0 0.00 0.00 0.00 51 1017.3
20260509032639 57 121 1.0 2.0 0.00 0.00 0.00 51 1017.3
20260509032539 57 121 1.0 2.0 0.00 0.00 0.00 51 1017.2
20260509032439 57 121 1.0 2.0 0.00 0.00 0.00 51 1017.2
20260509032339 57 121 1.0 2.0 0.00 0.00 0.00 50 1017.2
20260509032239 57 121 1.0 3.0 0.00 0.00 0.00 49 1017.2
20260509032146 57 121 1.0 3.0 0.00 0.00 0.00 49 1017.2
20260509031952 57 121 1.0 3.0 0.00 0.00 0.00 50 1017.1
20260509031944 57 121 1.0 3.0 0.00 0.00 0.00 50 1017.1
20260509031746 57 121 1.0 3.0 0.00 0.00 0.00 50 1017.2
20260509031536 57 121 1.0 3.0 0.00 0.00 0.00 49 1017.1
20260509031437 57 121 1.0 3.0 0.00 0.00 0.00 49 1017.1
20260509031335 57 121 0.0 3.0 0.00 0.00 0.00 49 1017.1
20260509031234 58 121 0.0 3.0 0.00 0.00 0.00 49 1017.1
20260509031131 58 121 0.0 3.0 0.00 0.00 0.00 49 1017.0
20260509031027 58 77 0.0 2.0 0.00 0.00 0.00 48 1017.0
20260509030943 58 77 0.0 2.0 0.00 0.00 0.00 48 1017.1
20260509030827 58 77 0.0 2.0 0.00 0.00 0.00 48 1017.0
20260509030727 58 77 0.0 3.0 0.00 0.00 0.00 48 1017.0
20260509030627 58 77 0.0 3.0 0.00 0.00 0.00 48 1017.0
20260509030527 58 77 1.0 3.0 0.00 0.00 0.00 48 1017.0
20260509030427 58 77 1.0 3.0 0.00 0.00 0.00 48 1016.8
20260509030340 58 77 1.0 3.0 0.00 0.00 0.00 47 1016.8
20260509030032 58 77 1.0 4.0 0.00 0.00 0.00 47 1016.8
20260509025825 59 77 2.0 4.0 0.00 0.00 0.00 47 1016.8
20260509025618 59 77 2.0 4.0 0.00 0.00 0.00 47 1016.8
20260509025518 59 77 2.0 4.0 0.00 0.00 0.00 47 1016.8
20260509025417 59 77 2.0 4.0 0.00 0.00 0.00 47 1016.7
20260509025313 59 77 2.0 4.0 0.00 0.00 0.00 46 1016.7
20260509025213 59 77 2.0 6.0 0.00 0.00 0.00 47 1016.7
20260509025120 59 77 3.0 6.0 0.00 0.00 0.00 46 1016.7
20260509024942 59 77 3.0 6.0 0.00 0.00 0.00 46 1016.6
20260509024813 59 31 3.0 6.0 0.00 0.00 0.00 46 1016.7
20260509024713 59 92 3.0 6.0 0.00 0.00 0.00 46 1016.7
20260509024613 59 92 3.0 6.0 0.00 0.00 0.00 46 1016.6
20260509024513 59 97 3.0 6.0 0.00 0.00 0.00 46 1016.6
20260509024413 59 85 3.0 6.0 0.00 0.00 0.00 46 1016.7
20260509024333 60 104 3.0 6.0 0.00 0.00 0.00 46 1016.7
20260509024311 60 103 3.0 6.0 0.00 0.00 0.00 46 1016.7
20260509024211 60 78 3.0 6.0 0.00 0.00 0.00 46 1016.6
20260509024112 60 107 2.0 6.0 0.00 0.00 0.00 46 1016.7
20260509023905 60 107 2.0 6.0 0.00 0.00 0.00 45 1016.6
20260509023830 60 107 2.0 6.0 0.00 0.00 0.00 45 1016.7
20260509023805 60 107 2.0 6.0 0.00 0.00 0.00 46 1016.7
20260509023705 60 107 2.0 6.0 0.00 0.00 0.00 46 1016.6
20260509023605 60 107 2.0 6.0 0.00 0.00 0.00 46 1016.7
20260509023505 60 98 3.0 6.0 0.00 0.00 0.00 45 1016.7
20260509023407 60 82 3.0 6.0 0.00 0.00 0.00 45 1016.6
20260509023331 60 93 3.0 6.0 0.00 0.00 0.00 45 1016.6
20260509023306 60 70 3.0 6.0 0.00 0.00 0.00 45 1016.6
20260509023205 60 70 3.0 6.0 0.00 0.00 0.00 45 1016.6
20260509023105 60 70 3.0 6.0 0.00 0.00 0.00 45 1016.6
20260509023005 60 70 3.0 6.0 0.00 0.00 0.00 45 1016.6
20260509022901 60 83 3.0 6.0 0.00 0.00 0.00 45 1016.6
20260509022826 60 109 3.0 6.0 0.00 0.00 0.00 45 1016.5
20260509022801 60 74 3.0 6.0 0.00 0.00 0.00 45 1016.5
20260509022701 60 103 3.0 6.0 0.00 0.00 0.00 45 1016.5
20260509022601 60 71 3.0 6.0 0.00 0.00 0.00 45 1016.5
20260509022509 60 86 3.0 6.0 0.00 0.00 0.00 45 1016.5
20260509022327 60 67 3.0 6.0 0.00 0.00 0.00 45 1016.5
20260509022301 60 107 3.0 6.0 0.00 0.00 0.00 45 1016.5
20260509022202 60 74 3.0 6.0 0.00 0.00 0.00 45 1016.5
20260509022102 60 103 3.0 6.0 0.00 0.00 0.00 45 1016.5
20260509022008 60 118 3.0 6.0 0.00 0.00 0.00 45 1016.5
20260509021827 61 96 3.0 6.0 0.00 0.00 0.00 45 1016.5
20260509021803 61 98 3.0 6.0 0.00 0.00 0.00 45 1016.5
20260509021701 61 88 3.0 6.0 0.00 0.00 0.00 45 1016.5
20260509021602 61 90 3.0 6.0 0.00 0.00 0.00 45 1016.5
20260509021502 61 101 3.0 6.0 0.00 0.00 0.00 44 1016.5
20260509021402 61 103 3.0 6.0 0.00 0.00 0.00 44 1016.5
20260509021327 61 93 2.0 6.0 0.00 0.00 0.00 44 1016.5
20260509021302 61 92 2.0 6.0 0.00 0.00 0.00 44 1016.5
20260509021201 61 92 2.0 6.0 0.00 0.00 0.00 45 1016.4
20260509021101 61 107 2.0 6.0 0.00 0.00 0.00 45 1016.4
20260509020956 61 92 2.0 6.0 0.00 0.00 0.00 44 1016.4
20260509020859 61 92 2.0 7.0 0.00 0.00 0.00 44 1016.4
20260509020827 61 92 3.0 7.0 0.00 0.00 0.00 44 1016.4
20260509020758 61 92 3.0 7.0 0.00 0.00 0.00 44 1016.4
20260509020705 61 98 3.0 7.0 0.00 0.00 0.00 44 1016.4
20260509020504 62 95 3.0 7.0 0.00 0.00 0.00 44 1016.4
20260509020327 62 98 3.0 7.0 0.00 0.00 0.00 44 1016.2
20260509020257 62 85 3.0 7.0 0.00 0.00 0.00 44 1016.2
20260509020158 62 88 3.0 7.0 0.00 0.00 0.00 44 1016.4
20260509020057 62 105 3.0 7.0 0.00 0.00 0.00 43 1016.2
20260509015958 62 107 3.0 7.0 0.00 0.00 0.00 43 1016.2
20260509015910 62 92 3.0 6.0 0.00 0.00 0.00 44 1016.2
20260509015902 62 115 3.0 6.0 0.00 0.00 0.00 44 1016.4
20260509015658 62 100 3.0 6.0 0.00 0.00 0.00 44 1016.2
20260509015557 62 90 3.0 6.0 0.00 0.00 0.00 44 1016.2
20260509015456 62 96 3.0 6.0 0.00 0.00 0.00 44 1016.2
20260509015433 62 95 3.0 6.0 0.00 0.00 0.00 43 1016.2
20260509015258 62 108 3.0 6.0 0.00 0.00 0.00 43 1016.2
20260509015157 62 106 3.0 6.0 0.00 0.00 0.00 43 1016.2
20260509015053 62 94 3.0 6.0 0.00 0.00 0.00 43 1016.2
20260509014953 62 94 3.0 6.0 0.00 0.00 0.00 43 1016.2
20260509014853 62 94 3.0 4.0 0.00 0.00 0.00 43 1016.1
20260509014827 62 90 3.0 6.0 0.00 0.00 0.00 43 1016.1
20260509014753 62 90 3.0 6.0 0.00 0.00 0.00 43 1016.1
20260509014653 63 90 3.0 6.0 0.00 0.00 0.00 43 1016.1
20260509014553 63 85 3.0 7.0 0.00 0.00 0.00 43 1016.0
20260509014500 63 122 3.0 7.0 0.00 0.00 0.00 43 1016.1
20260509014323 63 98 3.0 7.0 0.00 0.00 0.00 43 1016.1
20260509014254 63 85 3.0 7.0 0.00 0.00 0.00 43 1016.0
20260509014201 63 85 2.0 7.0 0.00 0.00 0.00 42 1016.1
20260509013953 63 95 2.0 7.0 0.00 0.00 0.00 42 1016.1
20260509013853 63 84 2.0 7.0 0.00 0.00 0.00 42 1016.1
20260509013822 63 105 2.0 7.0 0.00 0.00 0.00 42 1016.1
20260509013753 63 103 2.0 7.0 0.00 0.00 0.00 42 1016.0
20260509013654 63 115 2.0 7.0 0.00 0.00 0.00 42 1016.0
20260509013552 64 99 2.0 6.0 0.00 0.00 0.00 42 1016.0
20260509013453 64 113 2.0 6.0 0.00 0.00 0.00 41 1016.0
20260509013353 64 113 3.0 6.0 0.00 0.00 0.00 42 1016.1
20260509013323 64 113 3.0 6.0 0.00 0.00 0.00 42 1016.1
20260509013253 64 113 3.0 6.0 0.00 0.00 0.00 42 1016.0
20260509013150 64 113 3.0 6.0 0.00 0.00 0.00 42 1016.0
20260509013051 64 121 3.0 6.0 0.00 0.00 0.00 41 1016.0
20260509012948 64 106 3.0 6.0 0.00 0.00 0.00 41 1016.0
20260509012822 64 106 3.0 6.0 0.00 0.00 0.00 41 1016.0
20260509012749 64 106 3.0 6.0 0.00 0.00 0.00 41 1016.0
20260509012649 64 106 3.0 6.0 0.00 0.00 0.00 41 1016.0
20260509012549 65 106 3.0 7.0 0.00 0.00 0.00 41 1016.0
20260509012448 65 106 3.0 7.0 0.00 0.00 0.00 41 1016.0
20260509012324 65 106 3.0 7.0 0.00 0.00 0.00 41 1016.0
20260509012306 65 106 3.0 7.0 0.00 0.00 0.00 40 1016.0
20260509011949 65 106 3.0 7.0 0.00 0.00 0.00 40 1016.0
20260509011849 65 145 3.0 7.0 0.00 0.00 0.00 40 1016.0
20260509011822 65 125 3.0 7.0 0.00 0.00 0.00 40 1016.0
20260509011749 65 128 3.0 7.0 0.00 0.00 0.00 40 1016.0
20260509011657 66 101 3.0 7.0 0.00 0.00 0.00 40 1016.0
20260509011450 66 117 3.0 6.0 0.00 0.00 0.00 39 1016.0
20260509011431 66 102 2.0 6.0 0.00 0.00 0.00 39 1016.0
20260509011246 66 88 2.0 6.0 0.00 0.00 0.00 38 1016.0
20260509011145 66 111 2.0 6.0 0.00 0.00 0.00 38 1015.9
20260509011044 66 94 2.0 6.0 0.00 0.00 0.00 38 1015.9
20260509010945 67 94 2.0 6.0 0.00 0.00 0.00 37 1015.9
20260509010845 67 94 2.0 6.0 0.00 0.00 0.00 37 1015.9
20260509010824 67 94 2.0 6.0 0.00 0.00 0.00 38 1015.9
20260509010745 67 95 2.0 6.0 0.00 0.00 0.00 38 1015.9
20260509010645 67 78 2.0 6.0 0.00 0.00 0.00 38 1015.9
20260509010558 67 160 2.0 6.0 0.00 0.00 0.00 37 1015.9
20260509010322 67 105 3.0 6.0 0.00 0.00 0.00 37 1015.9
20260509010246 67 105 3.0 8.0 0.00 0.00 0.00 37 1015.9
20260509010145 67 105 4.0 8.0 0.00 0.00 0.00 37 1015.9
20260509010044 68 116 4.0 8.0 0.00 0.00 0.00 37 1015.9
20260509005945 68 50 4.0 8.0 0.00 0.00 0.00 36 1015.9
20260509005822 68 50 4.0 8.0 0.00 0.00 0.00 36 1015.9
20260509005759 68 53 3.0 8.0 0.00 0.00 0.00 35 1016.0
20260509005445 69 106 3.0 8.0 0.00 0.00 0.00 35 1015.9
20260509005339 69 106 3.0 8.0 0.00 0.00 0.00 35 1015.9
20260509005322 69 113 3.0 8.0 0.00 0.00 0.00 35 1015.9
20260509005239 69 131 3.0 8.0 0.00 0.00 0.00 36 1015.9
20260509005144 69 118 3.0 8.0 0.00 0.00 0.00 35 1015.9
20260509004936 69 112 3.0 7.0 0.00 0.00 0.00 35 1015.9
20260509004835 69 155 3.0 9.0 0.00 0.00 0.00 36 1015.9
20260509004823 69 138 3.0 9.0 0.00 0.00 0.00 36 1015.9
20260509004741 69 117 4.0 9.0 0.00 0.00 0.00 35 1015.9
20260509004543 69 114 5.0 9.0 0.00 0.00 0.00 34 1015.9
20260509004536 69 104 5.0 11.0 0.00 0.00 0.00 35 1016.0
20260509004222 70 67 5.0 11.0 0.00 0.00 0.00 34 1016.0
20260509004131 70 78 5.0 11.0 0.00 0.00 0.00 33 1016.0
20260509003922 70 85 4.0 11.0 0.00 0.00 0.00 33 1015.9
20260509003824 71 111 3.0 11.0 0.00 0.00 0.00 33 1015.9
20260509003819 71 123 3.0 11.0 0.00 0.00 0.00 33 1015.9
20260509003725 71 90 3.0 11.0 0.00 0.00 0.00 33 1015.9
20260509003523 71 132 1.0 10.0 0.00 0.00 0.00 34 1015.9
20260509003318 71 121 1.0 8.0 0.00 0.00 0.00 33 1015.9
20260509003309 72 111 1.0 8.0 0.00 0.00 0.00 33 1015.9
20260509003209 71 200 0.0 4.0 0.00 0.00 0.00 34 1015.9
20260509003109 71 126 0.0 3.0 0.00 0.00 0.00 34 1015.9
20260509003009 71 125 0.0 2.0 0.00 0.00 0.00 34 1015.9
20260509002908 71 126 0.0 2.0 0.00 0.00 0.00 35 1015.9
20260509002806 71 126 0.0 2.0 0.00 0.00 0.00 35 1015.9
20260509002704 70 126 1.0 3.0 0.00 0.00 0.00 34 1016.0
20260509002603 70 126 1.0 3.0 0.00 0.00 0.00 34 1016.0
20260509002503 70 126 1.0 3.0 0.00 0.00 0.00 36 1016.0
20260509002400 70 126 1.0 4.0 0.00 0.00 0.00 37 1015.9
20260509002320 70 126 1.0 4.0 0.00 0.00 0.00 35 1016.0
20260509002306 70 126 1.0 4.0 0.00 0.00 0.00 35 1016.0
20260509002055 70 126 2.0 4.0 0.00 0.00 0.00 35 1015.9
20260509001955 69 126 2.0 4.0 0.00 0.00 0.00 35 1015.9
20260509001924 69 126 2.0 4.0 0.00 0.00 0.00 35 1016.0
20260509001749 69 126 2.0 4.0 0.00 0.00 0.00 35 1016.0
20260509001648 69 125 2.0 4.0 0.00 0.00 0.00 35 1016.0
20260509001546 69 126 2.0 4.0 0.00 0.00 0.00 35 1015.9
20260509001453 69 42 2.0 4.0 0.00 0.00 0.00 35 1015.9
20260509001317 69 42 2.0 9.0 0.00 0.00 0.00 35 1015.9
20260509001245 69 42 2.0 9.0 0.00 0.00 0.00 35 1016.0
20260509001145 69 42 2.0 9.0 0.00 0.00 0.00 35 1015.9
20260509001045 69 42 2.0 9.0 0.00 0.00 0.00 36 1015.9
20260509000943 69 42 2.0 9.0 0.00 0.00 0.00 36 1016.0
20260509000844 69 42 3.0 9.0 0.00 0.00 0.00 36 1016.0
20260509000644 69 42 3.0 9.0 0.00 0.00 0.00 35 1016.0
20260509000456 69 148 3.0 9.0 0.00 0.00 0.00 35 1016.0
20260509000341 69 126 3.0 6.0 0.00 0.00 0.00 35 1015.9
20260509000029 69 137 3.0 6.0 0.00 0.00 0.00 36 1016.0
20260508235930 69 171 3.0 6.0 0.00 0.00 0.00 35 1016.0
20260508235826 69 175 2.0 6.0 0.00 0.00 0.00 35 1016.0
20260508235813 69 174 2.0 5.0 0.00 0.00 0.00 35 1016.0
20260508235720 69 134 2.0 5.0 0.00 0.00 0.00 35 1015.9
20260508235621 69 158 3.0 5.0 0.00 0.00 0.00 36 1016.0
20260508235521 69 157 2.0 4.0 0.00 0.00 0.00 35 1016.0
20260508235421 69 91 2.0 4.0 0.00 0.00 0.00 36 1016.0
20260508235321 69 96 3.0 6.0 0.00 0.00 0.00 35 1015.9
20260508235310 69 115 3.0 6.0 0.00 0.00 0.00 35 1015.9
20260508235218 69 35 3.0 6.0 0.00 0.00 0.00 34 1016.0
20260508235115 69 35 3.0 6.0 0.00 0.00 0.00 34 1016.0
20260508235015 69 35 3.0 6.0 0.00 0.00 0.00 34 1016.0
20260508234912 69 89 2.0 6.0 0.00 0.00 0.00 34 1016.0
20260508234812 70 72 2.0 6.0 0.00 0.00 0.00 33 1016.0
20260508234723 70 76 2.0 6.0 0.00 0.00 0.00 33 1016.0
20260508234409 71 93 2.0 6.0 0.00 0.00 0.00 33 1016.0
20260508234306 71 51 2.0 6.0 0.00 0.00 0.00 33 1016.0
20260508234201 71 56 2.0 6.0 0.00 0.00 0.00 34 1016.0
20260508234100 71 56 2.0 6.0 0.00 0.00 0.00 34 1016.0
20260508234001 71 157 2.0 6.0 0.00 0.00 0.00 33 1016.0
20260508233901 71 157 2.0 6.0 0.00 0.00 0.00 33 1016.0
20260508233800 71 157 2.0 7.0 0.00 0.00 0.00 35 1016.0
20260508233655 71 180 2.0 7.0 0.00 0.00 0.00 34 1016.0
20260508233555 71 154 2.0 7.0 0.00 0.00 0.00 34 1016.0
20260508233454 71 121 2.0 7.0 0.00 0.00 0.00 35 1016.0
20260508233355 71 117 3.0 7.0 0.00 0.00 0.00 34 1016.0
20260508233255 71 96 3.0 8.0 0.00 0.00 0.00 35 1016.0
20260508233148 71 96 3.0 8.0 0.00 0.00 0.00 34 1016.0
20260508233048 71 96 4.0 8.0 0.00 0.00 0.00 33 1016.1
20260508232956 71 96 4.0 8.0 0.00 0.00 0.00 34 1016.1
20260508232749 71 237 3.0 8.0 0.00 0.00 0.00 34 1016.1
20260508232658 71 229 3.0 8.0 0.00 0.00 0.00 34 1016.1
20260508232342 71 151 3.0 8.0 0.00 0.00 0.00 34 1016.1
20260508232243 71 128 3.0 7.0 0.00 0.00 0.00 34 1016.0
20260508232148 71 136 3.0 7.0 0.00 0.00 0.00 34 1016.1
20260508231942 71 104 3.0 7.0 0.00 0.00 0.00 34 1016.0
20260508231839 71 28 3.0 7.0 0.00 0.00 0.00 34 1016.0
20260508231736 71 78 3.0 7.0 0.00 0.00 0.00 34 1016.0
20260508231638 71 78 3.0 7.0 0.00 0.00 0.00 34 1016.0
20260508231431 71 35 3.0 7.0 0.00 0.00 0.00 34 1016.0
20260508231341 71 59 3.0 7.0 0.00 0.00 0.00 34 1016.0
20260508231230 71 331 3.0 7.0 0.00 0.00 0.00 34 1016.0
20260508231127 71 61 3.0 7.0 0.00 0.00 0.00 34 1016.0
20260508231027 71 74 3.0 7.0 0.00 0.00 0.00 34 1015.9
20260508230927 71 91 3.0 7.0 0.00 0.00 0.00 34 1016.0
20260508230828 71 55 3.0 7.0 0.00 0.00 0.00 35 1016.0
20260508230724 71 88 3.0 7.0 0.00 0.00 0.00 35 1016.0
20260508230626 70 95 3.0 6.0 0.00 0.00 0.00 34 1016.0
20260508230419 70 50 3.0 6.0 0.00 0.00 0.00 34 1016.0
20260508230319 70 24 3.0 8.0 0.00 0.00 0.00 33 1016.0
20260508230222 70 24 3.0 9.0 0.00 0.00 0.00 34 1016.0
20260508230015 70 34 4.0 9.0 0.00 0.00 0.00 34 1016.0
20260508225922 70 36 3.0 9.0 0.00 0.00 0.00 35 1016.1
20260508225712 70 316 4.0 10.0 0.00 0.00 0.00 35 1016.0
20260508225609 70 90 4.0 10.0 0.00 0.00 0.00 34 1016.1
20260508225507 70 90 4.0 10.0 0.00 0.00 0.00 34 1016.0
20260508225407 70 90 4.0 10.0 0.00 0.00 0.00 34 1016.1
20260508225307 70 47 4.0 10.0 0.00 0.00 0.00 34 1016.0
20260508225206 70 48 5.0 12.0 0.00 0.00 0.00 34 1016.1
20260508225101 70 11 5.0 12.0 0.00 0.00 0.00 34 1016.1
20260508225001 71 47 5.0 12.0 0.00 0.00 0.00 34 1016.1
20260508224901 71 44 5.0 12.0 0.00 0.00 0.00 34 1016.1
20260508224801 71 67 5.0 12.0 0.00 0.00 0.00 35 1016.1
20260508224700 71 5 5.0 12.0 0.00 0.00 0.00 36 1016.0
20260508224554 71 327 5.0 12.0 0.00 0.00 0.00 36 1016.0
20260508224454 71 5 5.0 12.0 0.00 0.00 0.00 35 1016.0
20260508224355 71 348 4.0 12.0 0.00 0.00 0.00 34 1016.0
20260508224255 71 30 4.0 12.0 0.00 0.00 0.00 34 1016.0
20260508224154 71 61 4.0 12.0 0.00 0.00 0.00 34 1016.1
20260508224049 71 68 4.0 12.0 0.00 0.00 0.00 35 1016.0
20260508223949 71 73 4.0 9.0 0.00 0.00 0.00 35 1016.0
20260508223849 71 63 4.0 9.0 0.00 0.00 0.00 36 1016.1
20260508223748 70 42 4.0 9.0 0.00 0.00 0.00 35 1016.1
20260508223649 70 32 5.0 9.0 0.00 0.00 0.00 34 1016.0
20260508223546 70 121 5.0 9.0 0.00 0.00 0.00 35 1016.1
20260508223447 70 121 6.0 12.0 0.00 0.00 0.00 35 1016.1
20260508223345 70 98 6.0 12.0 0.00 0.00 0.00 35 1016.1
20260508223254 70 97 6.0 12.0 0.00 0.00 0.00 35 1016.1
20260508223142 70 84 6.0 12.0 0.00 0.00 0.00 35 1016.1
20260508223037 70 55 6.0 12.0 0.00 0.00 0.00 37 1016.1
20260508222937 70 39 6.0 12.0 0.00 0.00 0.00 36 1016.1
20260508222837 70 28 6.0 12.0 0.00 0.00 0.00 36 1016.1
20260508222747 70 28 6.0 12.0 0.00 0.00 0.00 35 1016.1
20260508222740 69 51 5.0 12.0 0.00 0.00 0.00 35 1016.1
20260508222532 69 55 5.0 12.0 0.00 0.00 0.00 37 1016.1
20260508222433 69 55 5.0 11.0 0.00 0.00 0.00 36 1016.1
20260508222334 69 61 4.0 11.0 0.00 0.00 0.00 36 1016.1
20260508222241 69 55 4.0 11.0 0.00 0.00 0.00 36 1016.1
20260508222234 69 63 4.0 9.0 0.00 0.00 0.00 36 1016.2
20260508222029 69 44 4.0 8.0 0.00 0.00 0.00 35 1016.2
20260508221929 69 39 4.0 10.0 0.00 0.00 0.00 35 1016.2
20260508221829 69 56 5.0 10.0 0.00 0.00 0.00 35 1016.2
20260508221728 69 46 5.0 10.0 0.00 0.00 0.00 36 1016.2
20260508221624 69 115 5.0 10.0 0.00 0.00 0.00 35 1016.2
20260508221521 69 75 6.0 12.0 0.00 0.00 0.00 34 1016.2
20260508221428 69 64 6.0 12.0 0.00 0.00 0.00 35 1016.2
20260508221228 69 59 6.0 12.0 0.00 0.00 0.00 35 1016.2
20260508221117 69 86 6.0 12.0 0.00 0.00 0.00 35 1016.2
20260508221014 69 84 7.0 12.0 0.00 0.00 0.00 35 1016.4
20260508220918 69 94 6.0 13.0 0.00 0.00 0.00 35 1016.2
20260508220711 70 27 6.0 13.0 0.00 0.00 0.00 35 1016.2
20260508220610 70 27 6.0 13.0 0.00 0.00 0.00 36 1016.2
20260508220504 70 32 5.0 13.0 0.00 0.00 0.00 35 1016.4
20260508220404 70 23 5.0 13.0 0.00 0.00 0.00 35 1016.2
20260508220305 70 40 5.0 13.0 0.00 0.00 0.00 35 1016.4
20260508220205 70 40 5.0 13.0 0.00 0.00 0.00 36 1016.4
20260508220105 71 82 5.0 13.0 0.00 0.00 0.00 36 1016.4
20260508215959 71 48 5.0 13.0 0.00 0.00 0.00 37 1016.4
20260508215859 70 336 5.0 9.0 0.00 0.00 0.00 37 1016.5
20260508215759 70 15 4.0 9.0 0.00 0.00 0.00 36 1016.5
20260508215658 70 47 4.0 9.0 0.00 0.00 0.00 37 1016.5
20260508215600 70 51 4.0 9.0 0.00 0.00 0.00 38 1016.4
20260508215353 70 36 4.0 10.0 0.00 0.00 0.00 38 1016.5
20260508215252 70 17 4.0 10.0 0.00 0.00 0.00 38 1016.5
20260508215153 70 305 5.0 10.0 0.00 0.00 0.00 37 1016.5
20260508215053 69 355 4.0 10.0 0.00 0.00 0.00 38 1016.5
20260508214947 69 23 4.0 10.0 0.00 0.00 0.00 38 1016.5
20260508214847 69 20 4.0 10.0 0.00 0.00 0.00 36 1016.5
20260508214746 69 84 5.0 12.0 0.00 0.00 0.00 37 1016.5
20260508214648 69 57 5.0 12.0 0.00 0.00 0.00 37 1016.5
20260508214546 69 51 6.0 12.0 0.00 0.00 0.00 36 1016.5
20260508214443 69 47 6.0 12.0 0.00 0.00 0.00 37 1016.6
20260508214341 69 49 5.0 12.0 0.00 0.00 0.00 36 1016.6
20260508214241 69 61 5.0 12.0 0.00 0.00 0.00 36 1016.6
20260508214152 69 103 5.0 12.0 0.00 0.00 0.00 35 1016.7
20260508214040 70 109 5.0 12.0 0.00 0.00 0.00 35 1016.7
20260508213935 70 80 5.0 12.0 0.00 0.00 0.00 35 1016.6
20260508213836 70 99 5.0 12.0 0.00 0.00 0.00 36 1016.7
20260508213735 70 110 4.0 11.0 0.00 0.00 0.00 35 1016.7
20260508213635 70 96 4.0 10.0 0.00 0.00 0.00 35 1016.7
20260508213534 70 104 4.0 10.0 0.00 0.00 0.00 35 1016.7
20260508213430 70 121 5.0 12.0 0.00 0.00 0.00 35 1016.7
20260508213329 70 107 5.0 12.0 0.00 0.00 0.00 37 1016.7
20260508213230 70 137 5.0 12.0 0.00 0.00 0.00 36 1016.7
20260508213128 70 136 5.0 12.0 0.00 0.00 0.00 36 1016.6
20260508213028 70 102 5.0 12.0 0.00 0.00 0.00 37 1016.7
20260508212924 70 184 5.0 12.0 0.00 0.00 0.00 35 1016.7
20260508212823 71 67 5.0 12.0 0.00 0.00 0.00 35 1016.6
20260508212729 71 49 5.0 12.0 0.00 0.00 0.00 36 1016.6
20260508212522 71 113 4.0 12.0 0.00 0.00 0.00 36 1016.7
20260508212419 71 78 3.0 10.0 0.00 0.00 0.00 36 1016.7
20260508212319 71 96 3.0 8.0 0.00 0.00 0.00 36 1016.7
20260508212217 70 122 3.0 8.0 0.00 0.00 0.00 38 1016.7
20260508212128 70 130 3.0 8.0 0.00 0.00 0.00 37 1016.8
20260508212121 70 84 3.0 11.0 0.00 0.00 0.00 37 1016.7
20260508211916 70 119 3.0 11.0 0.00 0.00 0.00 36 1016.8
20260508211820 70 119 3.0 11.0 0.00 0.00 0.00 37 1016.8
20260508211613 70 119 3.0 11.0 0.00 0.00 0.00 37 1017.0
20260508211510 70 142 3.0 11.0 0.00 0.00 0.00 37 1016.8
20260508211407 70 142 3.0 11.0 0.00 0.00 0.00 37 1016.8
20260508211304 69 144 4.0 11.0 0.00 0.00 0.00 38 1016.8
20260508211211 69 63 4.0 11.0 0.00 0.00 0.00 37 1017.0
20260508211005 69 90 3.0 10.0 0.00 0.00 0.00 39 1016.8
20260508210915 69 104 3.0 10.0 0.00 0.00 0.00 39 1017.0
20260508210611 69 60 3.0 10.0 0.00 0.00 0.00 37 1017.0
20260508210459 69 60 4.0 10.0 0.00 0.00 0.00 37 1017.0
20260508210355 69 56 4.0 10.0 0.00 0.00 0.00 38 1017.0
20260508210254 69 59 4.0 10.0 0.00 0.00 0.00 38 1017.0
20260508210155 69 9 4.0 10.0 0.00 0.00 0.00 37 1017.0
20260508210054 69 9 4.0 10.0 0.00 0.00 0.00 36 1017.1
20260508205952 69 51 4.0 10.0 0.00 0.00 0.00 38 1017.1
20260508205849 69 28 4.0 10.0 0.00 0.00 0.00 37 1017.1
20260508205747 69 40 3.0 9.0 0.00 0.00 0.00 38 1017.1
20260508205647 69 40 3.0 9.0 0.00 0.00 0.00 37 1017.1
20260508205547 69 87 3.0 9.0 0.00 0.00 0.00 39 1017.1
20260508205446 69 108 3.0 9.0 0.00 0.00 0.00 40 1017.1
20260508205341 69 86 3.0 7.0 0.00 0.00 0.00 39 1017.1
20260508205240 69 142 3.0 7.0 0.00 0.00 0.00 39 1017.1
20260508205141 69 72 3.0 7.0 0.00 0.00 0.00 37 1017.1
20260508205041 69 83 3.0 7.0 0.00 0.00 0.00 37 1017.1
20260508204948 69 47 3.0 7.0 0.00 0.00 0.00 37 1017.1
20260508204635 68 63 4.0 10.0 0.00 0.00 0.00 37 1017.1
20260508204534 68 30 5.0 11.0 0.00 0.00 0.00 38 1017.2
20260508204434 68 325 5.0 11.0 0.00 0.00 0.00 41 1017.2
20260508204328 68 43 5.0 11.0 0.00 0.00 0.00 39 1017.2
20260508204228 68 82 5.0 11.0 0.00 0.00 0.00 39 1017.2
20260508204130 68 39 6.0 11.0 0.00 0.00 0.00 40 1017.2
20260508204029 68 29 6.0 13.0 0.00 0.00 0.00 39 1017.2
20260508203928 68 20 6.0 13.0 0.00 0.00 0.00 38 1017.2
20260508203824 68 61 6.0 13.0 0.00 0.00 0.00 39 1017.3
20260508203723 68 34 5.0 13.0 0.00 0.00 0.00 38 1017.2
20260508203623 68 26 5.0 13.0 0.00 0.00 0.00 38 1017.3
20260508203523 68 49 5.0 13.0 0.00 0.00 0.00 40 1017.3
20260508203424 68 22 5.0 13.0 0.00 0.00 0.00 37 1017.3
20260508203216 69 42 5.0 13.0 0.00 0.00 0.00 37 1017.3
20260508203116 69 46 4.0 13.0 0.00 0.00 0.00 39 1017.3
20260508203018 69 33 4.0 9.0 0.00 0.00 0.00 41 1017.3
20260508202917 69 69 4.0 8.0 0.00 0.00 0.00 41 1017.3
20260508202816 69 355 4.0 8.0 0.00 0.00 0.00 40 1017.3
20260508202715 69 85 5.0 13.0 0.00 0.00 0.00 41 1017.3
20260508202613 69 61 5.0 13.0 0.00 0.00 0.00 38 1017.3
20260508202513 69 41 6.0 13.0 0.00 0.00 0.00 37 1017.3
20260508202410 69 23 5.0 13.0 0.00 0.00 0.00 40 1017.3
20260508202312 68 71 5.0 13.0 0.00 0.00 0.00 42 1017.2
20260508202105 68 17 5.0 13.0 0.00 0.00 0.00 39 1017.3
20260508202006 68 334 5.0 13.0 0.00 0.00 0.00 40 1017.3
20260508201906 68 72 5.0 13.0 0.00 0.00 0.00 38 1017.3
20260508201659 68 34 4.0 12.0 0.00 0.00 0.00 38 1017.3
20260508201616 68 87 4.0 11.0 0.00 0.00 0.00 39 1017.4
20260508201502 68 258 3.0 10.0 0.00 0.00 0.00 40 1017.4
20260508201252 67 323 3.0 10.0 0.00 0.00 0.00 40 1017.4
20260508201152 68 28 4.0 10.0 0.00 0.00 0.00 38 1017.4
20260508201053 68 15 4.0 10.0 0.00 0.00 0.00 38 1017.5
20260508200953 68 78 3.0 10.0 0.00 0.00 0.00 38 1017.4
20260508200852 68 63 3.0 9.0 0.00 0.00 0.00 38 1017.5
20260508200747 68 53 3.0 8.0 0.00 0.00 0.00 38 1017.5
20260508200646 68 63 3.0 8.0 0.00 0.00 0.00 41 1017.5
20260508200546 68 90 3.0 10.0 0.00 0.00 0.00 41 1017.5
20260508200447 68 99 4.0 10.0 0.00 0.00 0.00 43 1017.5
20260508200347 67 22 4.0 10.0 0.00 0.00 0.00 42 1017.5
20260508200251 67 51 4.0 10.0 0.00 0.00 0.00 43 1017.5
20260508200044 67 33 4.0 10.0 0.00 0.00 0.00 41 1017.7
20260508195943 67 138 4.0 10.0 0.00 0.00 0.00 40 1017.7
20260508195841 67 41 4.0 10.0 0.00 0.00 0.00 39 1017.7
20260508195634 67 26 4.0 10.0 0.00 0.00 0.00 39 1017.7
20260508195535 67 20 4.0 10.0 0.00 0.00 0.00 39 1017.7
20260508195435 67 77 4.0 10.0 0.00 0.00 0.00 39 1017.7
20260508195334 67 105 5.0 12.0 0.00 0.00 0.00 40 1017.7
20260508195231 67 98 5.0 12.0 0.00 0.00 0.00 39 1017.7
20260508195131 67 76 5.0 12.0 0.00 0.00 0.00 39 1017.8
20260508195031 67 80 5.0 12.0 0.00 0.00 0.00 38 1017.7
20260508194931 67 80 5.0 12.0 0.00 0.00 0.00 40 1017.7
20260508194837 66 60 6.0 12.0 0.00 0.00 0.00 41 1017.8
20260508194523 66 49 6.0 12.0 0.00 0.00 0.00 40 1017.8
20260508194433 66 44 5.0 12.0 0.00 0.00 0.00 39 1017.8
20260508194426 66 36 5.0 11.0 0.00 0.00 0.00 39 1017.8
20260508194224 67 100 4.0 11.0 0.00 0.00 0.00 40 1017.8
20260508194017 67 22 4.0 11.0 0.00 0.00 0.00 39 1017.8
20260508193917 67 58 4.0 11.0 0.00 0.00 0.00 40 1017.9
20260508193816 67 51 4.0 11.0 0.00 0.00 0.00 39 1017.8
20260508193715 67 90 4.0 11.0 0.00 0.00 0.00 42 1017.8
20260508193614 67 41 4.0 11.0 0.00 0.00 0.00 40 1017.8
20260508193520 66 49 4.0 11.0 0.00 0.00 0.00 41 1017.8
20260508193311 66 49 5.0 15.0 0.00 0.00 0.00 40 1017.9
20260508193105 66 69 5.0 15.0 0.00 0.00 0.00 40 1017.9
20260508193005 66 141 5.0 15.0 0.00 0.00 0.00 40 1017.9
20260508192904 66 62 6.0 15.0 0.00 0.00 0.00 40 1017.9
20260508192804 66 81 6.0 15.0 0.00 0.00 0.00 40 1018.0
20260508192658 66 63 6.0 15.0 0.00 0.00 0.00 40 1018.0
20260508192559 66 94 5.0 15.0 0.00 0.00 0.00 43 1017.9
20260508192506 66 74 5.0 15.0 0.00 0.00 0.00 42 1017.9
20260508192258 66 64 4.0 12.0 0.00 0.00 0.00 40 1017.9
20260508192153 66 82 4.0 12.0 0.00 0.00 0.00 42 1017.9
20260508192052 65 346 4.0 10.0 0.00 0.00 0.00 45 1017.9
20260508191953 65 5 4.0 11.0 0.00 0.00 0.00 43 1018.0
20260508191906 65 41 5.0 11.0 0.00 0.00 0.00 43 1018.0
20260508191859 65 75 5.0 11.0 0.00 0.00 0.00 45 1018.0
20260508191602 65 107 6.0 11.0 0.00 0.00 0.00 41 1018.0
20260508191246 65 88 7.0 12.0 0.00 0.00 0.00 42 1018.0
20260508191149 65 71 7.0 12.0 0.00 0.00 0.00 42 1018.1
20260508190958 65 83 7.0 12.0 0.00 0.00 0.00 42 1018.0
20260508190845 65 78 7.0 12.0 0.00 0.00 0.00 42 1018.0
20260508190635 65 48 7.0 12.0 0.00 0.00 0.00 44 1018.0
20260508190535 65 85 6.0 12.0 0.00 0.00 0.00 40 1017.9
20260508190436 66 38 6.0 12.0 0.00 0.00 0.00 41 1017.9
20260508190335 66 58 6.0 12.0 0.00 0.00 0.00 44 1018.0
20260508190235 65 72 6.0 11.0 0.00 0.00 0.00 43 1018.0
20260508190128 65 62 6.0 9.0 0.00 0.00 0.00 43 1018.0
20260508190036 65 99 6.0 10.0 0.00 0.00 0.00 43 1018.1
20260508185829 65 86 7.0 11.0 0.00 0.00 0.00 43 1018.3
20260508185730 65 79 7.0 11.0 0.00 0.00 0.00 43 1018.3
20260508185622 65 84 7.0 13.0 0.00 0.00 0.00 44 1018.1
20260508185530 65 69 7.0 13.0 0.00 0.00 0.00 44 1018.1
20260508185334 64 84 7.0 13.0 0.00 0.00 0.00 43 1018.1
20260508185326 64 28 7.0 13.0 0.00 0.00 0.00 43 1018.3
20260508185119 64 42 7.0 13.0 0.00 0.00 0.00 42 1018.1
20260508185018 64 37 6.0 13.0 0.00 0.00 0.00 42 1018.1
20260508184918 65 38 6.0 13.0 0.00 0.00 0.00 43 1018.1
20260508184828 65 52 6.0 13.0 0.00 0.00 0.00 44 1018.1
20260508184716 65 355 6.0 13.0 0.00 0.00 0.00 45 1018.1
20260508184612 65 5 6.0 12.0 0.00 0.00 0.00 43 1018.3
20260508184511 65 54 6.0 12.0 0.00 0.00 0.00 44 1018.1
20260508184410 64 36 5.0 12.0 0.00 0.00 0.00 44 1018.3
20260508184310 64 42 5.0 12.0 0.00 0.00 0.00 44 1018.3
20260508184218 64 84 5.0 12.0 0.00 0.00 0.00 44 1018.3
20260508184210 64 123 5.0 12.0 0.00 0.00 0.00 44 1018.3
20260508184107 64 105 5.0 12.0 0.00 0.00 0.00 46 1018.3
20260508184007 64 36 6.0 13.0 0.00 0.00 0.00 43 1018.3
20260508183908 64 89 7.0 13.0 0.00 0.00 0.00 45 1018.4
20260508183815 64 45 7.0 13.0 0.00 0.00 0.00 44 1018.4
20260508183808 64 38 7.0 13.0 0.00 0.00 0.00 45 1018.4
20260508183601 64 31 7.0 13.0 0.00 0.00 0.00 45 1018.4
20260508183458 64 23 7.0 13.0 0.00 0.00 0.00 44 1018.4
20260508183358 64 55 8.0 14.0 0.00 0.00 0.00 48 1018.4
20260508183325 64 63 8.0 14.0 0.00 0.00 0.00 45 1018.4
20260508183158 64 63 7.0 14.0 0.00 0.00 0.00 45 1018.5
20260508183052 64 34 7.0 14.0 0.00 0.00 0.00 45 1018.4
20260508182952 64 38 7.0 14.0 0.00 0.00 0.00 45 1018.4
20260508182853 64 26 7.0 14.0 0.00 0.00 0.00 44 1018.4
20260508182752 64 63 7.0 14.0 0.00 0.00 0.00 46 1018.4
20260508182718 64 41 7.0 14.0 0.00 0.00 0.00 46 1018.3
20260508182652 64 38 6.0 14.0 0.00 0.00 0.00 45 1018.4
20260508182546 64 78 6.0 14.0 0.00 0.00 0.00 46 1018.4
20260508182446 64 38 6.0 14.0 0.00 0.00 0.00 45 1018.4
20260508182346 64 36 7.0 12.0 0.00 0.00 0.00 46 1018.5
20260508182246 64 46 7.0 12.0 0.00 0.00 0.00 46 1018.5
20260508182218 64 17 7.0 12.0 0.00 0.00 0.00 46 1018.5
20260508182146 64 59 7.0 13.0 0.00 0.00 0.00 45 1018.5
20260508182040 63 35 7.0 13.0 0.00 0.00 0.00 44 1018.6
20260508181940 63 44 8.0 13.0 0.00 0.00 0.00 46 1018.6
20260508181847 63 16 8.0 13.0 0.00 0.00 0.00 45 1018.7
20260508181717 63 74 7.0 13.0 0.00 0.00 0.00 46 1018.6
20260508181644 63 76 7.0 13.0 0.00 0.00 0.00 46 1018.6
20260508181437 63 34 7.0 13.0 0.00 0.00 0.00 44 1018.7
20260508181345 63 84 6.0 13.0 0.00 0.00 0.00 45 1018.6
20260508181216 63 31 6.0 13.0 0.00 0.00 0.00 47 1018.6
20260508181135 63 64 5.0 13.0 0.00 0.00 0.00 44 1018.6
20260508181036 63 18 5.0 13.0 0.00 0.00 0.00 44 1018.7
20260508180830 63 30 5.0 10.0 0.00 0.00 0.00 44 1018.6
20260508180822 63 32 5.0 13.0 0.00 0.00 0.00 44 1018.6
20260508180628 63 56 5.0 13.0 0.00 0.00 0.00 44 1018.6
20260508180528 63 58 5.0 13.0 0.00 0.00 0.00 44 1018.6
20260508180436 63 32 5.0 13.0 0.00 0.00 0.00 44 1018.7
20260508180225 63 53 6.0 13.0 0.00 0.00 0.00 45 1018.6
20260508180214 63 66 6.0 13.0 0.00 0.00 0.00 45 1018.6
20260508180123 63 46 6.0 13.0 0.00 0.00 0.00 44 1018.7
20260508180017 63 36 6.0 13.0 0.00 0.00 0.00 43 1018.6
20260508175917 64 71 6.0 13.0 0.00 0.00 0.00 44 1018.7
20260508175827 64 48 6.0 13.0 0.00 0.00 0.00 42 1018.7
20260508175820 64 22 6.0 13.0 0.00 0.00 0.00 44 1018.7
20260508175616 64 40 7.0 13.0 0.00 0.00 0.00 44 1018.7
20260508175510 63 96 7.0 13.0 0.00 0.00 0.00 45 1018.8
20260508175410 63 61 7.0 13.0 0.00 0.00 0.00 44 1018.8
20260508175322 63 45 7.0 13.0 0.00 0.00 0.00 44 1018.8
20260508175210 63 64 8.0 13.0 0.00 0.00 0.00 44 1018.8
20260508175110 63 46 8.0 13.0 0.00 0.00 0.00 44 1018.8
20260508175006 63 76 8.0 13.0 0.00 0.00 0.00 44 1019.0
20260508174905 63 65 8.0 13.0 0.00 0.00 0.00 44 1019.0
20260508174804 63 29 7.0 13.0 0.00 0.00 0.00 44 1019.0
20260508174714 63 55 7.0 13.0 0.00 0.00 0.00 44 1018.8
20260508174705 63 38 7.0 13.0 0.00 0.00 0.00 44 1018.8
20260508174604 63 49 7.0 13.0 0.00 0.00 0.00 47 1018.8
20260508174458 63 59 7.0 13.0 0.00 0.00 0.00 45 1018.7
20260508174359 63 32 7.0 13.0 0.00 0.00 0.00 45 1018.7
20260508174259 63 34 6.0 13.0 0.00 0.00 0.00 45 1018.7
20260508174213 63 32 6.0 13.0 0.00 0.00 0.00 46 1018.7
20260508174158 63 54 6.0 13.0 0.00 0.00 0.00 46 1018.7
20260508174058 63 67 6.0 11.0 0.00 0.00 0.00 45 1018.7
20260508173959 63 63 6.0 11.0 0.00 0.00 0.00 44 1018.8
20260508173820 63 34 6.0 11.0 0.00 0.00 0.00 44 1019.0
20260508173652 63 67 6.0 11.0 0.00 0.00 0.00 44 1018.8
20260508173552 63 59 6.0 11.0 0.00 0.00 0.00 45 1018.8
20260508173453 63 92 5.0 11.0 0.00 0.00 0.00 46 1018.8
20260508173352 63 56 5.0 11.0 0.00 0.00 0.00 45 1018.8
20260508173253 63 5 5.0 11.0 0.00 0.00 0.00 46 1018.8
20260508173214 63 16 4.0 11.0 0.00 0.00 0.00 45 1018.8
20260508173152 63 49 4.0 11.0 0.00 0.00 0.00 45 1018.8
20260508173052 63 34 4.0 11.0 0.00 0.00 0.00 45 1018.8
20260508172953 63 63 4.0 10.0 0.00 0.00 0.00 45 1018.8
20260508172928 63 27 5.0 10.0 0.00 0.00 0.00 48 1018.8
20260508172654 63 39 5.0 10.0 0.00 0.00 0.00 46 1018.8
20260508172552 63 57 4.0 10.0 0.00 0.00 0.00 49 1019.0
20260508172452 63 82 5.0 10.0 0.00 0.00 0.00 47 1019.0
20260508172353 63 0 4.0 10.0 0.00 0.00 0.00 47 1019.1
20260508172247 63 54 4.0 10.0 0.00 0.00 0.00 46 1019.0
20260508172207 63 59 4.0 10.0 0.00 0.00 0.00 46 1019.0
20260508172146 62 44 4.0 10.0 0.00 0.00 0.00 46 1019.0
20260508172046 62 24 4.0 10.0 0.00 0.00 0.00 46 1019.0
20260508171948 62 24 5.0 9.0 0.00 0.00 0.00 47 1019.0
20260508171846 62 48 5.0 12.0 0.00 0.00 0.00 45 1019.0
20260508171740 62 69 5.0 12.0 0.00 0.00 0.00 44 1019.0
20260508171706 62 49 5.0 12.0 0.00 0.00 0.00 44 1019.0
20260508171647 62 51 5.0 12.0 0.00 0.00 0.00 44 1019.0
20260508171441 62 87 6.0 13.0 0.00 0.00 0.00 45 1019.0
20260508171340 62 96 6.0 13.0 0.00 0.00 0.00 45 1019.0
20260508171236 62 93 6.0 13.0 0.00 0.00 0.00 46 1019.1
20260508171205 62 101 6.0 13.0 0.00 0.00 0.00 46 1019.1
20260508171137 62 84 6.0 13.0 0.00 0.00 0.00 49 1019.1
20260508171043 62 55 6.0 13.0 0.00 0.00 0.00 45 1019.0
20260508170844 62 48 6.0 13.0 0.00 0.00 0.00 46 1019.0
20260508170704 62 15 6.0 13.0 0.00 0.00 0.00 46 1018.8
20260508170636 62 55 6.0 13.0 0.00 0.00 0.00 46 1019.0
20260508170537 62 73 6.0 13.0 0.00 0.00 0.00 48 1019.0
20260508170444 62 19 6.0 13.0 0.00 0.00 0.00 46 1019.0
20260508170234 62 53 7.0 13.0 0.00 0.00 0.00 45 1019.1
20260508170204 62 38 7.0 13.0 0.00 0.00 0.00 45 1019.1
20260508170135 62 80 7.0 13.0 0.00 0.00 0.00 46 1019.1
20260508170042 62 62 7.0 13.0 0.00 0.00 0.00 46 1019.1
20260508165835 62 54 6.0 11.0 0.00 0.00 0.00 47 1019.1
20260508165812 62 54 6.0 11.0 0.00 0.00 0.00 47 1019.1
20260508165635 62 61 6.0 11.0 0.00 0.00 0.00 47 1019.1
20260508165428 62 51 5.0 11.0 0.00 0.00 0.00 46 1019.0
20260508165336 62 51 5.0 11.0 0.00 0.00 0.00 45 1019.0
20260508165204 62 66 5.0 11.0 0.00 0.00 0.00 46 1019.0
20260508165128 62 40 5.0 11.0 0.00 0.00 0.00 48 1019.0
20260508165022 62 36 5.0 11.0 0.00 0.00 0.00 46 1019.0
20260508164922 62 71 5.0 11.0 0.00 0.00 0.00 46 1019.0
20260508164823 62 79 5.0 11.0 0.00 0.00 0.00 49 1019.0
20260508164738 62 38 6.0 11.0 0.00 0.00 0.00 49 1019.1
20260508164731 62 29 6.0 11.0 0.00 0.00 0.00 46 1019.1
20260508164423 62 103 6.0 11.0 0.00 0.00 0.00 45 1019.1
20260508164416 62 51 6.0 11.0 0.00 0.00 0.00 45 1019.1
20260508164116 62 105 7.0 13.0 0.00 0.00 0.00 47 1019.1
20260508164017 62 88 7.0 13.0 0.00 0.00 0.00 48 1019.0
20260508163917 62 66 7.0 13.0 0.00 0.00 0.00 47 1019.0
20260508163818 61 88 7.0 13.0 0.00 0.00 0.00 47 1019.0
20260508163701 61 98 6.0 13.0 0.00 0.00 0.00 46 1019.0
20260508163616 61 76 7.0 13.0 0.00 0.00 0.00 48 1019.0
20260508163523 61 115 7.0 13.0 0.00 0.00 0.00 47 1019.0
20260508163316 61 101 7.0 13.0 0.00 0.00 0.00 48 1019.0
20260508163216 61 82 6.0 12.0 0.00 0.00 0.00 47 1019.1
20260508163202 61 74 6.0 11.0 0.00 0.00 0.00 47 1019.1
20260508163117 61 45 7.0 11.0 0.00 0.00 0.00 47 1019.0
20260508163017 61 62 7.0 11.0 0.00 0.00 0.00 47 1019.1
20260508162916 61 107 7.0 11.0 0.00 0.00 0.00 47 1019.0
20260508162814 61 67 7.0 11.0 0.00 0.00 0.00 47 1019.0
20260508162714 62 67 7.0 11.0 0.00 0.00 0.00 47 1019.0
20260508162702 62 57 7.0 11.0 0.00 0.00 0.00 47 1019.0
20260508162614 62 86 7.0 11.0 0.00 0.00 0.00 49 1019.0
20260508162514 62 212 7.0 12.0 0.00 0.00 0.00 49 1019.0
20260508162414 62 63 7.0 12.0 0.00 0.00 0.00 48 1019.0
20260508162314 62 63 7.0 12.0 0.00 0.00 0.00 49 1019.0
20260508162215 62 131 7.0 12.0 0.00 0.00 0.00 51 1019.0
20260508162202 62 117 7.0 12.0 0.00 0.00 0.00 51 1019.0
20260508162115 62 104 7.0 12.0 0.00 0.00 0.00 52 1019.0
20260508162030 62 116 6.0 12.0 0.00 0.00 0.00 50 1019.1
20260508161916 62 40 6.0 12.0 0.00 0.00 0.00 52 1019.0
20260508161612 61 91 5.0 12.0 0.00 0.00 0.00 51 1019.0
20260508161518 61 36 5.0 12.0 0.00 0.00 0.00 50 1019.0
20260508161313 61 92 5.0 12.0 0.00 0.00 0.00 52 1019.0
20260508161212 61 94 5.0 12.0 0.00 0.00 0.00 50 1019.0
20260508161201 61 146 5.0 12.0 0.00 0.00 0.00 50 1019.0
20260508161119 61 91 5.0 12.0 0.00 0.00 0.00 50 1019.0
20260508160912 61 70 5.0 12.0 0.00 0.00 0.00 51 1019.0
20260508160813 61 87 5.0 12.0 0.00 0.00 0.00 51 1019.0
20260508160712 61 47 6.0 12.0 0.00 0.00 0.00 54 1019.0
20260508160657 61 99 6.0 12.0 0.00 0.00 0.00 52 1019.0
20260508160612 61 112 6.0 12.0 0.00 0.00 0.00 53 1019.0
20260508160513 61 116 6.0 12.0 0.00 0.00 0.00 54 1019.0
20260508160412 61 149 6.0 12.0 0.00 0.00 0.00 56 1019.1
20260508160313 60 157 6.0 12.0 0.00 0.00 0.00 57 1019.1
20260508160212 60 122 7.0 13.0 0.00 0.00 0.00 54 1019.1
20260508160158 60 88 7.0 13.0 0.00 0.00 0.00 54 1019.1
20260508160113 60 84 7.0 13.0 0.00 0.00 0.00 52 1019.1
20260508160012 60 66 7.0 13.0 0.00 0.00 0.00 53 1019.1
20260508155919 60 74 7.0 13.0 0.00 0.00 0.00 55 1019.1
20260508155710 60 96 7.0 13.0 0.00 0.00 0.00 56 1019.0
20260508155658 60 144 7.0 13.0 0.00 0.00 0.00 56 1019.0
20260508155610 60 119 7.0 13.0 0.00 0.00 0.00 57 1019.1
20260508155511 60 86 7.0 13.0 0.00 0.00 0.00 56 1019.1
20260508155411 59 142 7.0 13.0 0.00 0.00 0.00 55 1019.1
20260508155311 59 116 6.0 13.0 0.00 0.00 0.00 57 1019.1
20260508155210 59 158 6.0 11.0 0.00 0.00 0.00 55 1019.1
20260508155158 59 186 6.0 11.0 0.00 0.00 0.00 55 1019.1
20260508155111 59 138 6.0 11.0 0.00 0.00 0.00 54 1019.1
20260508155010 59 105 6.0 11.0 0.00 0.00 0.00 54 1019.1
20260508154911 59 116 6.0 12.0 0.00 0.00 0.00 55 1019.1
20260508154810 59 139 6.0 12.0 0.00 0.00 0.00 54 1019.1
20260508154710 58 140 6.0 12.0 0.00 0.00 0.00 55 1019.1
20260508154657 58 136 6.0 12.0 0.00 0.00 0.00 55 1019.1
20260508154611 58 135 6.0 12.0 0.00 0.00 0.00 55 1019.0
20260508154506 58 145 6.0 12.0 0.00 0.00 0.00 54 1019.0
20260508154407 58 192 7.0 12.0 0.00 0.00 0.00 54 1019.1
20260508154307 58 86 7.0 12.0 0.00 0.00 0.00 55 1019.1
20260508154206 58 110 7.0 12.0 0.00 0.00 0.00 55 1019.1
20260508154157 58 103 7.0 12.0 0.00 0.00 0.00 55 1019.1
20260508154119 58 128 7.0 12.0 0.00 0.00 0.00 55 1019.1
20260508153805 58 104 7.0 12.0 0.00 0.00 0.00 54 1019.1
20260508153705 59 92 7.0 12.0 0.00 0.00 0.00 53 1019.1
20260508153658 58 109 7.0 12.0 0.00 0.00 0.00 53 1019.1
20260508153612 59 134 7.0 12.0 0.00 0.00 0.00 53 1019.1
20260508153405 59 124 6.0 12.0 0.00 0.00 0.00 52 1019.1
20260508153305 60 98 6.0 12.0 0.00 0.00 0.00 51 1019.0
20260508153215 60 102 6.0 12.0 0.00 0.00 0.00 51 1019.1
20260508153208 60 115 6.0 12.0 0.00 0.00 0.00 52 1019.1
20260508153004 60 140 5.0 11.0 0.00 0.00 0.00 52 1019.0
20260508152904 60 163 4.0 11.0 0.00 0.00 0.00 55 1019.0
20260508152804 60 163 4.0 11.0 0.00 0.00 0.00 55 1019.0
20260508152705 60 134 4.0 11.0 0.00 0.01 0.00 54 1019.0
20260508152659 60 134 4.0 11.0 0.00 0.01 0.00 54 1019.0
20260508152604 60 145 5.0 12.0 0.00 0.01 0.00 55 1018.8
20260508152505 59 199 5.0 12.0 0.00 0.01 0.00 56 1019.0
20260508152404 59 198 5.0 12.0 0.00 0.01 0.00 57 1019.0
20260508152306 59 175 4.0 12.0 0.00 0.01 0.00 58 1019.0
20260508152217 58 240 5.0 12.0 0.00 0.01 0.00 56 1018.8
20260508152211 58 247 5.0 12.0 0.00 0.01 0.00 56 1018.8
20260508152004 58 157 5.0 12.0 0.00 0.01 0.00 54 1019.0
20260508151905 58 139 5.0 12.0 0.00 0.01 0.00 54 1018.8
20260508151804 58 131 5.0 12.0 0.00 0.01 0.00 55 1019.0
20260508151704 58 159 5.0 12.0 0.00 0.01 0.00 57 1019.0
20260508151653 58 172 5.0 12.0 0.00 0.01 0.00 57 1019.0
20260508151605 58 130 5.0 11.0 0.00 0.01 0.00 58 1019.0
20260508151504 57 127 5.0 11.0 0.00 0.01 0.00 58 1019.0
20260508151400 57 170 5.0 11.0 0.00 0.01 0.00 58 1019.0
20260508151301 57 172 5.0 11.0 0.00 0.01 0.00 59 1019.1
20260508151153 57 174 5.0 11.0 0.00 0.01 0.00 60 1019.1
20260508151100 57 190 5.0 9.0 0.00 0.01 0.00 60 1019.0
20260508151001 57 180 5.0 9.0 0.00 0.01 0.00 59 1019.1
20260508150900 56 154 5.0 9.0 0.00 0.01 0.00 60 1019.1
20260508150818 56 171 5.0 9.0 0.00 0.01 0.00 60 1019.1
20260508150704 56 124 5.0 9.0 0.00 0.01 0.00 60 1019.1
20260508150501 56 184 5.0 11.0 0.00 0.01 0.00 61 1019.2
20260508150400 56 170 5.0 11.0 0.00 0.01 0.00 61 1019.2
20260508150300 56 159 6.0 11.0 0.00 0.01 0.00 61 1019.1
20260508150201 56 148 6.0 11.0 0.00 0.01 0.00 62 1019.2
20260508150154 56 159 6.0 11.0 0.00 0.01 0.00 62 1019.2
20260508150100 55 179 6.0 12.0 0.00 0.01 0.00 62 1019.2
20260508150002 55 136 6.0 12.0 0.00 0.01 0.00 63 1019.2
20260508145900 55 131 6.0 12.0 0.00 0.01 0.00 64 1019.2
20260508145808 55 160 6.0 12.0 0.00 0.01 0.00 65 1019.2
20260508145654 55 133 6.0 12.0 0.00 0.01 0.00 65 1019.2
20260508145600 55 170 6.0 12.0 0.00 0.01 0.00 66 1019.2
20260508145456 54 162 6.0 12.0 0.00 0.01 0.00 65 1019.2
20260508145356 54 134 5.0 12.0 0.00 0.01 0.00 66 1019.2
20260508145256 54 134 5.0 12.0 0.00 0.01 0.00 66 1019.2
20260508145157 54 159 5.0 12.0 0.00 0.01 0.00 67 1019.2
20260508145057 54 174 5.0 10.0 0.00 0.01 0.00 67 1019.2
20260508144956 54 155 5.0 10.0 0.00 0.02 0.00 67 1019.2
20260508144905 53 202 5.0 10.0 0.00 0.02 0.00 68 1019.2
20260508144656 53 175 5.0 10.0 0.00 0.02 0.00 68 1019.2
20260508144603 53 194 6.0 10.0 0.00 0.02 0.00 69 1019.2
20260508144415 53 171 6.0 11.0 0.00 0.02 0.00 68 1019.2
20260508144408 53 188 6.0 11.0 0.00 0.02 0.00 69 1019.2
20260508144057 53 193 6.0 11.0 0.00 0.02 0.00 68 1019.3
20260508143956 53 178 6.0 11.0 0.00 0.02 0.00 68 1019.3
20260508143857 53 187 6.0 11.0 0.00 0.02 0.00 68 1019.3
20260508143756 53 169 6.0 11.0 0.00 0.02 0.00 68 1019.3
20260508143659 53 169 6.0 11.0 0.00 0.02 0.00 68 1019.3
20260508143452 53 202 6.0 11.0 0.00 0.02 0.00 68 1019.3
20260508143352 53 192 6.0 11.0 0.00 0.02 0.00 68 1019.4
20260508143254 53 203 5.0 11.0 0.00 0.02 0.00 69 1019.4
20260508143156 53 202 5.0 9.0 0.00 0.02 0.00 69 1019.4
20260508143152 53 236 5.0 9.0 0.00 0.02 0.00 69 1019.4
20260508143052 53 188 5.0 9.0 0.00 0.02 0.00 69 1019.4
20260508142952 53 188 5.0 9.0 0.00 0.02 0.00 69 1019.4
20260508142853 53 185 4.0 9.0 0.00 0.02 0.00 69 1019.4
20260508142752 53 146 4.0 9.0 0.00 0.02 0.00 69 1019.6
20260508142656 53 159 4.0 9.0 0.00 0.02 0.00 69 1019.6
20260508142652 53 159 4.0 9.0 0.00 0.02 0.00 69 1019.4
20260508142553 53 160 4.0 9.0 0.00 0.02 0.00 69 1019.4
20260508142452 52 157 3.0 7.0 0.00 0.02 0.00 69 1019.6
20260508142352 52 177 4.0 8.0 0.00 0.02 0.00 69 1019.4
20260508142306 52 159 4.0 8.0 0.00 0.02 0.00 69 1019.4
20260508142152 52 140 4.0 8.0 0.00 0.02 0.00 69 1019.6
20260508142052 52 142 4.0 8.0 0.00 0.02 0.00 68 1019.6
20260508141952 52 146 4.0 8.0 0.00 0.02 0.00 68 1019.6
20260508141853 52 151 4.0 8.0 0.00 0.02 0.00 69 1019.6
20260508141752 52 124 4.0 8.0 0.00 0.02 0.00 69 1019.6
20260508141648 52 130 4.0 8.0 0.00 0.02 0.00 69 1019.6
20260508141549 52 92 4.0 8.0 0.00 0.02 0.00 69 1019.6
20260508141448 52 93 4.0 8.0 0.00 0.02 0.00 69 1019.6
20260508141348 52 171 4.0 8.0 0.00 0.02 0.00 70 1019.6
20260508141249 52 167 3.0 8.0 0.00 0.02 0.00 70 1019.6
20260508141154 52 182 3.0 8.0 0.00 0.02 0.00 70 1019.6
20260508141148 52 173 3.0 8.0 0.00 0.02 0.00 70 1019.6
20260508141055 52 190 3.0 7.0 0.00 0.02 0.00 70 1019.7
20260508140848 52 153 3.0 7.0 0.00 0.02 0.00 70 1019.7
20260508140748 52 153 3.0 7.0 0.00 0.02 0.00 69 1019.7
20260508140654 52 148 3.0 7.0 0.00 0.02 0.00 69 1019.7
20260508140648 52 174 3.0 7.0 0.00 0.02 0.00 69 1019.7
20260508140556 52 160 2.0 7.0 0.00 0.02 0.00 70 1019.7
20260508140348 52 147 2.0 7.0 0.00 0.02 0.00 72 1019.7
20260508140249 52 111 2.0 6.0 0.00 0.02 0.00 72 1019.7
20260508140148 52 101 2.0 4.0 0.00 0.02 0.00 72 1019.7
20260508140049 52 101 2.0 4.0 0.00 0.02 0.00 72 1019.7
20260508135947 52 104 2.0 4.0 0.00 0.02 0.00 71 1019.8
20260508135849 52 106 2.0 3.0 0.00 0.02 0.00 72 1019.8
20260508135800 52 105 2.0 3.0 0.00 0.02 0.00 72 1019.8
20260508135644 52 86 2.0 3.0 0.00 0.02 0.00 72 1019.8
20260508135544 52 34 2.0 3.0 0.00 0.02 0.00 72 1019.8
20260508135443 52 98 1.0 3.0 0.00 0.02 0.00 72 1019.8
20260508135403 52 111 1.0 3.0 0.00 0.02 0.00 72 1019.8
20260508135356 52 136 1.0 3.0 0.00 0.02 0.00 71 1019.7
20260508135044 52 208 2.0 4.0 0.00 0.02 0.00 71 1019.8
20260508134944 52 208 2.0 5.0 0.00 0.02 0.00 71 1019.8
20260508134844 52 208 2.0 5.0 0.00 0.02 0.00 71 1019.8
20260508134744 52 208 2.0 5.0 0.00 0.02 0.00 71 1019.8
20260508134643 52 208 2.0 5.0 0.00 0.02 0.00 71 1019.8
20260508134548 52 122 2.0 5.0 0.00 0.02 0.00 71 1019.7
20260508134342 53 178 3.0 6.0 0.00 0.02 0.00 70 1019.7
20260508134248 53 178 3.0 6.0 0.00 0.02 0.00 69 1019.7
20260508134240 53 178 3.0 6.0 0.00 0.02 0.00 69 1019.7
20260508134035 53 178 3.0 6.0 0.00 0.02 0.00 70 1019.7
20260508133934 53 193 3.0 6.0 0.00 0.02 0.00 70 1019.8
20260508133837 54 185 3.0 6.0 0.00 0.02 0.00 70 1019.8
20260508133649 54 188 3.0 6.0 0.00 0.03 0.00 69 1019.8
20260508133631 54 178 3.0 6.0 0.00 0.03 0.00 69 1019.8
20260508133425 54 207 2.0 4.0 0.00 0.03 0.00 71 1019.8
20260508133324 54 207 2.0 4.0 0.00 0.03 0.00 71 1019.8
20260508133255 54 275 2.0 4.0 0.00 0.03 0.00 72 1019.8
20260508133123 54 234 2.0 4.0 0.00 0.03 0.00 73 1019.8
20260508133018 53 250 2.0 4.0 0.00 0.03 0.00 74 1019.8
20260508132918 53 250 2.0 4.0 0.00 0.03 0.00 74 1019.8
20260508132818 53 186 1.0 4.0 0.00 0.03 0.00 74 1019.8
20260508132719 53 186 1.0 3.0 0.00 0.03 0.00 76 1019.8
20260508132625 52 186 1.0 3.0 0.00 0.03 0.00 76 1019.8
20260508132310 51 173 2.0 6.0 0.00 0.03 0.00 78 1019.8
20260508132210 51 156 2.0 6.0 0.00 0.03 0.00 79 1019.8
20260508132147 51 158 2.0 6.0 0.00 0.03 0.00 79 1019.9
20260508132110 51 158 2.0 6.0 0.00 0.03 0.00 80 1019.9
20260508132017 50 177 2.0 6.0 0.00 0.03 0.00 80 1019.9
20260508131704 49 173 2.0 6.0 0.00 0.03 0.00 81 1019.8
20260508131648 49 173 3.0 6.0 0.00 0.03 0.00 81 1019.8
20260508131604 49 173 3.0 6.0 0.00 0.03 0.00 83 1019.8
20260508131359 48 319 3.0 6.0 0.00 0.03 0.00 84 1019.8
20260508131258 48 0 3.0 6.0 0.00 0.03 0.00 85 1019.8
20260508131147 47 355 3.0 6.0 0.00 0.03 0.00 85 1019.8
20260508131053 47 26 3.0 6.0 0.00 0.03 0.00 85 1019.9
20260508130948 47 27 2.0 6.0 0.00 0.03 0.00 85 1019.8
20260508130848 47 33 2.0 6.0 0.00 0.03 0.00 85 1019.9
20260508130759 46 59 3.0 6.0 0.00 0.03 0.00 85 1019.8
20260508130648 46 275 3.0 6.0 0.00 0.03 0.00 85 1019.9
20260508130545 46 275 3.0 6.0 0.00 0.03 0.00 85 1019.8
20260508130439 46 275 3.0 8.0 0.00 0.03 0.00 85 1019.8
20260508130341 46 275 3.0 8.0 0.00 0.03 0.00 85 1019.8
20260508130240 46 275 3.0 8.0 0.00 0.03 0.00 85 1019.8
20260508130146 46 299 3.0 8.0 0.00 0.03 0.00 85 1019.8
20260508130139 46 283 3.0 8.0 0.00 0.03 0.00 85 1019.8
20260508130039 46 252 4.0 8.0 0.00 0.03 0.00 85 1019.8
20260508125943 46 252 4.0 8.0 0.00 0.03 0.00 85 1019.8
20260508125736 45 196 4.0 8.0 0.00 0.03 0.00 85 1019.8
20260508125645 45 185 4.0 8.0 0.00 0.03 0.00 85 1019.8
20260508125634 45 188 4.0 8.0 0.00 0.03 0.00 85 1019.8
20260508125534 45 271 4.0 8.0 0.00 0.03 0.00 85 1019.8
20260508125432 45 244 3.0 8.0 0.00 0.03 0.00 85 1019.8
20260508125332 45 238 4.0 7.0 0.00 0.03 0.00 85 1019.7
20260508125233 45 225 4.0 7.0 0.00 0.03 0.00 85 1019.8
20260508125146 45 236 4.0 9.0 0.00 0.03 0.00 85 1019.7
20260508125131 45 240 4.0 9.0 0.00 0.03 0.00 85 1019.7
20260508125033 45 232 3.0 9.0 0.00 0.03 0.00 85 1019.7
20260508124930 45 219 3.0 9.0 0.00 0.03 0.00 85 1019.8
20260508124831 45 274 4.0 9.0 0.00 0.03 0.00 85 1019.8
20260508124741 45 284 4.0 9.0 0.00 0.03 0.00 85 1019.8
20260508124735 45 261 4.0 9.0 0.00 0.03 0.00 85 1019.8
20260508124531 45 259 4.0 9.0 0.00 0.03 0.00 85 1019.8
20260508124430 45 298 5.0 9.0 0.00 0.03 0.00 85 1019.8
20260508124331 45 284 5.0 10.0 0.00 0.03 0.00 85 1019.8
20260508124226 45 288 5.0 10.0 0.00 0.03 0.00 85 1019.8
20260508124126 45 270 5.0 10.0 0.00 0.03 0.00 85 1019.9
20260508124026 45 305 5.0 10.0 0.00 0.03 0.00 85 1019.9
20260508123926 45 274 5.0 10.0 0.00 0.03 0.00 86 1019.9
20260508123824 45 302 5.0 10.0 0.00 0.03 0.00 86 1020.0
20260508123718 45 306 5.0 10.0 0.00 0.03 0.00 86 1020.0
20260508123640 45 293 4.0 10.0 0.00 0.03 0.00 86 1020.0
20260508123618 45 321 4.0 10.0 0.00 0.03 0.00 86 1020.0
20260508123518 45 323 4.0 10.0 0.00 0.03 0.00 86 1020.0
20260508123418 45 313 4.0 10.0 0.00 0.04 0.00 86 1020.0
20260508123318 44 325 3.0 9.0 0.00 0.04 0.00 87 1020.0
20260508123211 44 313 3.0 9.0 0.00 0.04 0.00 87 1020.0
20260508123133 44 299 3.0 9.0 0.00 0.04 0.00 87 1020.0
20260508123119 44 310 3.0 9.0 0.00 0.04 0.00 87 1020.0
20260508122912 44 336 3.0 9.0 0.00 0.04 0.00 87 1020.0
20260508122811 44 348 3.0 9.0 0.00 0.04 0.00 87 1019.9
20260508122710 44 343 2.0 7.0 0.00 0.04 0.00 88 1020.0
20260508122610 44 324 2.0 5.0 0.00 0.04 0.00 88 1019.9
20260508122509 44 324 2.0 5.0 0.00 0.04 0.00 88 1019.9
20260508122408 44 324 3.0 5.0 0.00 0.04 0.00 88 1019.9
20260508122307 44 324 3.0 6.0 0.00 0.04 0.00 88 1019.8
20260508122159 44 324 3.0 6.0 0.00 0.04 0.00 88 1019.8
20260508122120 44 324 3.0 6.0 0.00 0.04 0.00 88 1019.8
20260508122100 44 324 3.0 6.0 0.00 0.04 0.00 88 1019.8
20260508122000 44 324 3.0 6.0 0.00 0.04 0.00 88 1019.8
20260508121859 44 324 3.0 6.0 0.00 0.04 0.00 88 1019.8
20260508121801 44 324 3.0 6.0 0.00 0.04 0.00 88 1019.7
20260508121654 44 324 3.0 7.0 0.00 0.04 0.00 88 1019.7
20260508121615 44 337 3.0 7.0 0.00 0.04 0.00 88 1019.6
20260508121555 44 337 3.0 7.0 0.00 0.04 0.00 88 1019.6
20260508121500 44 337 4.0 7.0 0.00 0.04 0.00 88 1019.4
20260508121253 44 337 4.0 8.0 0.00 0.04 0.00 89 1019.3
20260508121149 44 315 5.0 8.0 0.00 0.04 0.00 89 1019.3
20260508121108 44 315 5.0 8.0 0.00 0.04 0.00 89 1019.3
20260508121048 44 315 5.0 8.0 0.00 0.04 0.00 89 1019.3
20260508120947 44 323 4.0 8.0 0.00 0.04 0.00 89 1019.2
20260508120848 44 300 4.0 8.0 0.00 0.04 0.00 89 1019.2
20260508120748 44 316 4.0 8.0 0.00 0.04 0.00 89 1019.2
20260508120709 43 305 4.0 8.0 0.00 0.04 0.00 89 1019.2
20260508120541 43 298 3.0 8.0 0.00 0.04 0.00 89 1019.1
20260508120443 43 314 3.0 8.0 0.00 0.04 0.00 90 1019.1
20260508120342 43 304 3.0 8.0 0.00 0.04 0.00 90 1019.0
20260508120242 43 316 2.0 5.0 0.00 0.04 0.00 89 1019.0
20260508120136 43 309 2.0 5.0 0.00 0.04 0.00 89 1018.8
20260508120057 43 304 2.0 5.0 0.00 0.04 0.00 89 1018.8
20260508120036 43 342 2.0 5.0 0.00 0.04 0.00 89 1018.7
20260508115937 42 342 2.0 5.0 0.00 0.04 0.00 89 1018.7
20260508115837 42 342 2.0 5.0 0.00 0.04 0.00 89 1018.6
20260508115758 42 342 2.0 4.0 0.00 0.04 0.00 89 1018.6
20260508115751 42 342 2.0 4.0 0.00 0.04 0.00 89 1018.6
20260508115331 42 342 2.0 4.0 0.00 0.04 0.00 90 1018.6
20260508115229 42 342 2.0 4.0 0.00 0.04 0.00 90 1018.6
20260508115126 42 342 2.0 4.0 0.00 0.04 0.00 90 1018.6
20260508115041 42 342 3.0 5.0 0.00 0.04 0.00 90 1018.6
20260508114723 42 342 3.0 5.0 0.00 0.04 0.00 90 1018.7
20260508114624 42 342 3.0 5.0 0.00 0.04 0.00 90 1018.7
20260508114521 41 342 3.0 5.0 0.00 0.04 0.00 89 1018.6
20260508114421 41 342 3.0 5.0 0.00 0.04 0.00 89 1018.6
20260508114320 41 342 3.0 5.0 0.00 0.04 0.00 89 1018.6
20260508114219 41 342 3.0 5.0 0.00 0.04 0.00 89 1018.6
20260508114127 41 342 2.0 5.0 0.00 0.04 0.00 89 1018.6
20260508114120 41 342 2.0 4.0 0.00 0.04 0.00 89 1018.6
20260508113917 41 342 2.0 4.0 0.00 0.04 0.00 89 1018.6
20260508113814 41 342 2.0 4.0 0.00 0.04 0.00 89 1018.7
20260508113718 41 342 2.0 4.0 0.00 0.04 0.00 89 1018.6
20260508113509 41 342 2.0 4.0 0.00 0.04 0.00 88 1018.6
20260508113415 41 342 2.0 5.0 0.00 0.04 0.00 88 1018.5
20260508113210 41 342 2.0 5.0 0.00 0.04 0.00 88 1018.5
20260508113021 41 342 3.0 5.0 0.00 0.04 0.00 88 1018.5
20260508113001 41 342 3.0 5.0 0.00 0.04 0.00 88 1018.5
20260508112859 41 342 3.0 5.0 0.00 0.04 0.00 88 1018.5
20260508112808 41 342 3.0 5.0 0.00 0.04 0.00 88 1018.5
20260508112556 41 342 3.0 5.0 0.00 0.04 0.00 88 1018.5
20260508112514 41 342 3.0 5.0 0.00 0.04 0.00 88 1018.5
20260508112456 41 342 3.0 5.0 0.00 0.04 0.00 88 1018.5
20260508112355 41 342 3.0 5.0 0.00 0.04 0.00 88 1018.5
20260508112256 41 342 3.0 5.0 0.00 0.04 0.00 88 1018.5
20260508112153 41 342 3.0 5.0 0.00 0.04 0.00 88 1018.5
20260508112050 41 342 3.0 5.0 0.00 0.04 0.00 88 1018.4
20260508112009 41 342 3.0 5.0 0.00 0.04 0.00 88 1018.4
20260508111949 41 342 3.0 5.0 0.00 0.04 0.00 88 1018.4
20260508111857 41 342 3.0 4.0 0.00 0.04 0.00 88 1018.5
20260508111647 41 342 2.0 4.0 0.00 0.04 0.00 88 1018.4
20260508111546 41 342 2.0 4.0 0.00 0.04 0.00 87 1018.4
20260508111503 41 342 2.0 4.0 0.00 0.04 0.00 87 1018.4
20260508111446 41 342 2.0 4.0 0.00 0.04 0.00 87 1018.4
20260508111346 41 342 2.0 3.0 0.00 0.04 0.00 87 1018.4
20260508111245 41 342 2.0 4.0 0.00 0.04 0.00 87 1018.4
20260508111141 41 342 2.0 4.0 0.00 0.04 0.00 87 1018.4
20260508111048 41 342 3.0 4.0 0.00 0.04 0.00 87 1018.4
20260508111040 41 342 3.0 5.0 0.00 0.04 0.00 87 1018.4
20260508110836 41 342 3.0 5.0 0.00 0.04 0.00 87 1018.4
20260508110735 41 342 3.0 6.0 0.00 0.04 0.00 87 1018.4
20260508110636 42 342 3.0 6.0 0.00 0.04 0.00 87 1018.4
20260508110530 42 342 4.0 6.0 0.00 0.04 0.00 87 1018.4
20260508110430 42 342 4.0 6.0 0.00 0.04 0.00 87 1018.4
20260508110337 42 342 4.0 6.0 0.00 0.04 0.00 87 1018.4
20260508110129 42 342 4.0 6.0 0.00 0.04 0.00 87 1018.4
20260508110026 42 342 4.0 6.0 0.00 0.04 0.00 88 1018.4
20260508105944 42 342 3.0 6.0 0.00 0.04 0.00 88 1018.4
20260508105924 42 348 3.0 6.0 0.00 0.04 0.00 88 1018.4
20260508105831 42 345 3.0 6.0 0.00 0.04 0.00 88 1018.4
20260508105623 41 319 3.0 5.0 0.00 0.04 0.00 88 1018.4
20260508105519 41 315 3.0 5.0 0.00 0.04 0.00 88 1018.4
20260508105439 41 328 2.0 5.0 0.00 0.04 0.00 88 1018.3
20260508105420 41 308 2.0 5.0 0.00 0.04 0.00 87 1018.3
20260508105320 41 9 2.0 4.0 0.00 0.04 0.00 87 1018.3
20260508105220 41 9 2.0 4.0 0.00 0.04 0.00 87 1018.3
20260508105120 41 9 3.0 4.0 0.00 0.04 0.00 87 1018.3
20260508104911 41 9 3.0 8.0 0.00 0.04 0.00 86 1018.3
20260508104812 41 9 3.0 8.0 0.00 0.04 0.00 86 1018.1
20260508104718 41 9 3.0 8.0 0.00 0.04 0.00 86 1018.3
20260508104533 42 9 3.0 8.0 0.00 0.04 0.00 86 1018.0
20260508104411 42 9 3.0 8.0 0.00 0.04 0.00 86 1018.0
20260508104310 42 9 3.0 8.0 0.00 0.04 0.00 86 1018.1
20260508104209 42 9 3.0 8.0 0.00 0.04 0.00 86 1018.1
20260508104105 42 21 3.0 8.0 0.00 0.04 0.00 86 1018.1
20260508104013 42 17 4.0 8.0 0.00 0.04 0.00 86 1018.1
20260508104006 42 24 3.0 7.0 0.00 0.04 0.00 86 1018.1
20260508103802 42 26 4.0 7.0 0.00 0.04 0.00 86 1018.1
20260508103702 42 19 4.0 9.0 0.00 0.04 0.00 86 1018.1
20260508103559 42 15 4.0 9.0 0.00 0.04 0.00 86 1018.1
20260508103454 42 15 4.0 9.0 0.00 0.04 0.00 86 1018.1
20260508103415 42 15 4.0 9.0 0.00 0.04 0.00 86 1018.0
20260508103354 42 15 4.0 9.0 0.00 0.04 0.00 86 1018.0
20260508103254 42 15 4.0 9.0 0.00 0.04 0.00 86 1018.0
20260508103200 42 19 3.0 9.0 0.00 0.04 0.00 86 1018.0
20260508102948 42 53 3.0 9.0 0.00 0.04 0.00 87 1018.0
20260508102909 42 45 3.0 9.0 0.00 0.04 0.00 87 1018.0
20260508102848 42 33 2.0 9.0 0.00 0.04 0.00 86 1018.0
20260508102747 42 50 2.0 9.0 0.00 0.04 0.00 86 1018.0
20260508102648 42 38 1.0 9.0 0.00 0.04 0.00 86 1017.9
20260508102548 42 279 1.0 3.0 0.00 0.04 0.00 86 1017.8
20260508102454 42 279 1.0 3.0 0.00 0.04 0.00 86 1017.8
20260508102447 42 279 1.0 3.0 0.00 0.04 0.00 85 1017.8
20260508102250 42 279 1.0 3.0 0.00 0.04 0.00 85 1017.5
20260508102041 42 279 2.0 6.0 0.00 0.04 0.00 85 1017.3
20260508101943 42 279 2.0 6.0 0.00 0.04 0.00 85 1017.3
20260508101857 42 279 2.0 6.0 0.00 0.04 0.00 86 1017.3
20260508101839 42 279 2.0 6.0 0.00 0.04 0.00 86 1017.2
20260508101738 42 279 2.0 6.0 0.00 0.04 0.00 86 1017.2
20260508101642 42 279 2.0 6.0 0.00 0.04 0.00 86 1017.2
20260508101432 42 279 2.0 6.0 0.00 0.04 0.00 86 1017.3
20260508101330 42 279 2.0 6.0 0.00 0.04 0.00 85 1017.3
20260508101231 42 279 2.0 6.0 0.00 0.04 0.00 85 1017.3
20260508101130 42 279 2.0 4.0 0.00 0.04 0.00 85 1017.2
20260508101029 42 279 2.0 4.0 0.00 0.04 0.00 85 1017.2
20260508100929 42 279 2.0 4.0 0.00 0.04 0.00 85 1017.2
20260508100827 42 279 2.0 4.0 0.00 0.04 0.00 85 1017.2
20260508100728 42 279 2.0 4.0 0.00 0.04 0.00 85 1017.2
20260508100626 42 279 2.0 4.0 0.00 0.04 0.00 85 1017.3
20260508100537 42 279 2.0 4.0 0.00 0.04 0.00 85 1017.3
20260508100531 42 279 2.0 4.0 0.00 0.04 0.00 85 1017.3
20260508100219 42 279 2.0 4.0 0.00 0.04 0.00 85 1017.4
20260508100120 42 279 2.0 3.0 0.00 0.04 0.00 85 1017.3
20260508100017 42 279 2.0 3.0 0.00 0.04 0.00 85 1017.3
20260508095914 42 279 2.0 3.0 0.00 0.04 0.00 85 1017.3
20260508095812 42 279 2.0 3.0 0.00 0.04 0.00 85 1017.3
20260508095712 42 279 2.0 3.0 0.00 0.04 0.00 85 1017.4
20260508095612 42 279 2.0 3.0 0.00 0.04 0.00 85 1017.4
20260508095540 42 279 2.0 3.0 0.00 0.04 0.00 85 1017.3
20260508095312 42 279 2.0 3.0 0.00 0.04 0.00 84 1017.3
20260508095105 42 279 2.0 3.0 0.00 0.04 0.00 84 1017.3
20260508095006 42 279 2.0 3.0 0.00 0.04 0.00 84 1017.3
20260508094901 42 279 2.0 4.0 0.00 0.04 0.00 84 1017.4
20260508094820 42 279 2.0 4.0 0.00 0.04 0.00 84 1017.4
20260508094801 42 279 2.0 4.0 0.00 0.04 0.00 84 1017.4
20260508094659 42 279 2.0 4.0 0.00 0.04 0.00 84 1017.4
20260508094600 42 279 2.0 4.0 0.00 0.04 0.00 84 1017.4
20260508094512 43 279 2.0 4.0 0.00 0.04 0.00 84 1017.5
20260508094505 43 279 2.0 4.0 0.00 0.04 0.00 84 1017.5
20260508094202 43 279 2.0 4.0 0.00 0.04 0.00 84 1017.5
20260508093957 43 279 2.0 4.0 0.00 0.04 0.00 84 1017.4
20260508093808 43 279 2.0 4.0 0.00 0.04 0.00 83 1017.4
20260508093747 43 279 2.0 4.0 0.00 0.04 0.00 83 1017.4
20260508093647 43 279 2.0 3.0 0.00 0.04 0.00 83 1017.4
20260508093548 43 279 2.0 3.0 0.00 0.04 0.00 83 1017.4
20260508093448 43 279 2.0 3.0 0.00 0.04 0.00 83 1017.3
20260508093302 43 279 2.0 3.0 0.00 0.04 0.00 83 1017.4
20260508093241 43 279 2.0 3.0 0.00 0.04 0.00 83 1017.4
20260508093142 43 279 2.0 3.0 0.00 0.04 0.00 83 1017.4
20260508093042 44 279 2.0 3.0 0.00 0.04 0.00 83 1017.4
20260508092941 44 279 1.0 3.0 0.00 0.04 0.00 83 1017.5
20260508092837 44 279 1.0 3.0 0.00 0.04 0.00 83 1017.5
20260508092736 44 279 1.0 3.0 0.00 0.04 0.00 83 1017.5
20260508092636 44 279 1.0 3.0 0.00 0.04 0.00 83 1017.5
20260508092536 44 279 1.0 3.0 0.00 0.04 0.00 83 1017.5
20260508092436 44 279 1.0 3.0 0.00 0.04 0.00 83 1017.5
20260508092331 44 279 1.0 3.0 0.00 0.04 0.00 83 1017.4
20260508092230 44 279 2.0 4.0 0.00 0.04 0.00 83 1017.4
20260508092137 44 279 2.0 6.0 0.00 0.04 0.00 83 1017.4
20260508091930 44 279 2.0 6.0 0.00 0.04 0.00 83 1017.4
20260508091830 44 279 2.0 6.0 0.00 0.04 0.00 83 1017.4
20260508091727 44 279 2.0 6.0 0.00 0.04 0.00 83 1017.5
20260508091627 44 279 2.0 6.0 0.00 0.04 0.00 83 1017.5
20260508091526 44 279 2.0 6.0 0.00 0.04 0.00 83 1017.7
20260508091424 44 279 2.0 6.0 0.00 0.04 0.00 83 1017.7
20260508091320 44 279 2.0 6.0 0.00 0.04 0.00 83 1017.7
20260508091245 44 279 2.0 6.0 0.00 0.04 0.00 83 1017.7
20260508091226 44 311 2.0 5.0 0.00 0.04 0.00 83 1017.7
20260508091018 44 311 2.0 4.0 0.00 0.04 0.00 83 1017.7
20260508090931 44 311 2.0 3.0 0.00 0.04 0.00 82 1017.5
20260508090817 44 311 2.0 3.0 0.00 0.04 0.00 82 1017.5
20260508090611 44 311 2.0 4.0 0.00 0.04 0.00 82 1017.5
20260508090511 45 311 2.0 5.0 0.00 0.04 0.00 82 1017.5
20260508090411 45 311 2.0 6.0 0.00 0.04 0.00 82 1017.5
20260508090318 45 311 3.0 6.0 0.00 0.04 0.00 82 1017.7
20260508090311 45 311 3.0 6.0 0.00 0.04 0.00 82 1017.5
20260508090113 45 311 3.0 7.0 0.00 0.04 0.00 82 1017.5
20260508085905 45 311 3.0 7.0 0.00 0.04 0.00 82 1017.7
20260508085804 45 311 4.0 7.0 0.00 0.04 0.00 82 1017.7
20260508085745 45 311 4.0 7.0 0.00 0.04 0.00 82 1017.7
20260508085705 45 311 4.0 7.0 0.00 0.04 0.00 83 1017.7
20260508085602 45 302 4.0 7.0 0.00 0.04 0.00 83 1017.7
20260508085501 45 317 3.0 7.0 0.00 0.04 0.00 83 1017.7
20260508085359 44 306 3.0 7.0 0.00 0.04 0.00 83 1017.7
20260508085254 44 315 3.0 7.0 0.00 0.04 0.00 83 1017.7
20260508085245 44 305 3.0 7.0 0.00 0.04 0.00 83 1017.5
20260508085154 44 314 3.0 6.0 0.00 0.04 0.00 83 1017.5
20260508085053 44 344 3.0 4.0 0.00 0.04 0.00 83 1017.7
20260508085000 44 344 3.0 4.0 0.00 0.04 0.00 83 1017.5
20260508084755 44 344 3.0 4.0 0.00 0.04 0.00 82 1017.7
20260508084547 45 344 3.0 5.0 0.00 0.04 0.00 83 1017.7
20260508084448 45 344 3.0 5.0 0.00 0.04 0.00 83 1017.7